Time,TemperatureF,DewpointF,PressureIn,WindDirection,WindDirectionDegrees,WindSpeedMPH,WindSpeedGustMPH,Humidity,HourlyPrecipIn,Conditions,Clouds,dailyrainin,SoftwareType,DateUTC
2013-01-11 00:03:00,36.9,36.4,29.80,SE,142,14.0,14.0,98,0.00,,,0.08,Wunderground v.1.15,2013-01-11 06:03:00,
2013-01-11 00:04:00,36.9,36.4,29.80,SSE,155,13.0,14.0,98,0.00,,,0.08,Wunderground v.1.15,2013-01-11 06:04:00,
2013-01-11 00:09:00,37.0,36.5,29.80,South,170,9.0,10.0,98,0.10,,,0.09,Wunderground v.1.15,2013-01-11 06:09:00,
2013-01-11 00:10:00,37.0,36.5,29.80,SSE,163,10.0,10.0,98,0.10,,,0.09,Wunderground v.1.15,2013-01-11 06:10:00,
2013-01-11 00:14:00,37.0,36.5,29.80,SSE,153,11.0,12.0,98,0.10,,,0.10,Wunderground v.1.15,2013-01-11 06:14:00,
2013-01-11 00:15:00,37.0,36.5,29.80,SSE,158,10.0,12.0,98,0.10,,,0.10,Wunderground v.1.15,2013-01-11 06:15:00,
2013-01-11 00:19:00,37.2,36.7,29.80,SSE,163,5.0,11.0,98,0.10,,,0.10,Wunderground v.1.15,2013-01-11 06:19:00,
2013-01-11 00:23:00,37.2,36.7,29.79,SSE,149,8.0,11.0,98,0.06,,,0.10,Wunderground v.1.15,2013-01-11 06:23:00,
2013-01-11 00:29:00,37.3,36.8,29.79,SSE,149,10.0,10.0,98,0.04,,,0.10,Wunderground v.1.15,2013-01-11 06:29:00,
2013-01-11 00:33:00,37.3,36.8,29.79,ESE,104,11.0,11.0,98,0.00,,,0.10,Wunderground v.1.15,2013-01-11 06:33:00,
2013-01-11 00:34:00,37.3,36.8,29.79,SSE,157,12.0,12.0,98,0.00,,,0.10,Wunderground v.1.15,2013-01-11 06:34:00,
2013-01-11 00:39:00,37.3,36.8,29.79,SSE,147,9.0,11.0,98,0.00,,,0.10,Wunderground v.1.15,2013-01-11 06:39:00,
2013-01-11 00:40:00,37.3,36.8,29.79,South,171,6.0,11.0,98,0.00,,,0.10,Wunderground v.1.15,2013-01-11 06:40:00,
2013-01-11 00:43:00,37.3,36.8,29.79,SE,136,5.0,11.0,98,0.00,,,0.10,Wunderground v.1.15,2013-01-11 06:43:00,
2013-01-11 00:45:00,37.3,36.8,29.79,SSE,149,10.0,11.0,98,0.00,,,0.10,Wunderground v.1.15,2013-01-11 06:45:00,
2013-01-11 00:48:00,37.5,37.0,29.79,SE,146,11.0,11.0,98,0.00,,,0.10,Wunderground v.1.15,2013-01-11 06:48:00,
2013-01-11 00:49:00,37.5,37.0,29.79,SSE,148,10.0,11.0,98,0.00,,,0.10,Wunderground v.1.15,2013-01-11 06:49:00,
2013-01-11 00:53:00,37.5,37.0,29.77,SE,146,4.0,12.0,98,0.00,,,0.10,Wunderground v.1.15,2013-01-11 06:53:00,
2013-01-11 00:54:00,37.5,37.0,29.77,SSE,161,5.0,12.0,98,0.00,,,0.10,Wunderground v.1.15,2013-01-11 06:54:00,
2013-01-11 00:59:00,37.6,37.1,29.77,SSE,164,7.0,8.0,98,0.00,,,0.11,Wunderground v.1.15,2013-01-11 06:59:00,
2013-01-11 01:00:00,37.6,37.1,29.77,SE,136,9.0,9.0,98,0.00,,,0.11,Wunderground v.1.15,2013-01-11 07:00:00,
2013-01-11 01:03:00,37.6,37.1,29.77,SE,143,6.0,9.0,98,0.00,,,0.11,Wunderground v.1.15,2013-01-11 07:03:00,
2013-01-11 01:08:00,37.6,37.1,29.77,South,174,4.0,6.0,98,0.00,,,0.11,Wunderground v.1.15,2013-01-11 07:08:00,
2013-01-11 01:09:00,37.6,37.1,29.77,South,173,7.0,7.0,98,0.00,,,0.11,Wunderground v.1.15,2013-01-11 07:09:00,
2013-01-11 01:14:00,37.8,37.3,29.77,SSE,163,4.0,7.0,98,0.00,,,0.11,Wunderground v.1.15,2013-01-11 07:14:00,
2013-01-11 01:15:00,37.8,37.3,29.77,SSE,154,8.0,8.0,98,0.00,,,0.11,Wunderground v.1.15,2013-01-11 07:15:00,
2013-01-11 01:20:00,37.8,37.3,29.77,SE,138,5.0,7.0,98,0.00,,,0.11,Wunderground v.1.15,2013-01-11 07:20:00,
2013-01-11 01:23:00,37.8,37.3,29.75,SSE,161,5.0,7.0,98,0.00,,,0.11,Wunderground v.1.15,2013-01-11 07:23:00,
2013-01-11 01:24:00,37.8,37.3,29.75,SE,139,3.0,7.0,98,0.00,,,0.11,Wunderground v.1.15,2013-01-11 07:24:00,
2013-01-11 01:25:00,37.8,37.3,29.75,SE,144,5.0,7.0,98,0.00,,,0.11,Wunderground v.1.15,2013-01-11 07:25:00,
2013-01-11 01:29:00,37.8,37.3,29.75,SSE,150,12.0,12.0,98,0.00,,,0.12,Wunderground v.1.15,2013-01-11 07:29:00,
2013-01-11 01:30:00,37.9,37.4,29.75,SSE,155,7.0,12.0,98,0.00,,,0.12,Wunderground v.1.15,2013-01-11 07:30:00,
2013-01-11 01:33:00,37.9,37.4,29.75,SE,143,6.0,12.0,98,0.00,,,0.12,Wunderground v.1.15,2013-01-11 07:33:00,
2013-01-11 01:38:00,37.9,37.4,29.74,SSE,151,7.0,7.0,98,0.00,,,0.12,Wunderground v.1.15,2013-01-11 07:38:00,
2013-01-11 01:39:00,37.9,37.4,29.74,SE,141,5.0,7.0,98,0.00,,,0.12,Wunderground v.1.15,2013-01-11 07:39:00,
2013-01-11 01:40:00,37.9,37.4,29.74,SSE,148,4.0,7.0,98,0.00,,,0.12,Wunderground v.1.15,2013-01-11 07:40:00,
2013-01-11 01:48:00,37.8,37.3,29.74,SE,133,7.0,7.0,98,0.00,,,0.12,Wunderground v.1.15,2013-01-11 07:48:00,
2013-01-11 01:49:00,37.8,37.3,29.74,ESE,117,5.0,7.0,98,0.00,,,0.12,Wunderground v.1.15,2013-01-11 07:49:00,
2013-01-11 01:53:00,37.8,37.3,29.73,SE,145,10.0,10.0,98,0.00,,,0.12,Wunderground v.1.15,2013-01-11 07:53:00,
2013-01-11 01:54:00,37.8,37.3,29.73,SE,133,7.0,10.0,98,0.00,,,0.12,Wunderground v.1.15,2013-01-11 07:54:00,
2013-01-11 01:58:00,37.8,37.5,29.73,SE,129,5.0,7.0,99,0.00,,,0.12,Wunderground v.1.15,2013-01-11 07:58:00,
2013-01-11 01:59:00,37.8,37.5,29.73,SE,130,5.0,9.0,99,0.00,,,0.12,Wunderground v.1.15,2013-01-11 07:59:00,
2013-01-11 02:00:00,37.8,37.5,29.73,SE,143,5.0,9.0,99,0.00,,,0.12,Wunderground v.1.15,2013-01-11 08:00:00,
2013-01-11 02:04:00,37.9,37.6,29.73,ESE,115,5.0,11.0,99,0.00,,,0.12,Wunderground v.1.15,2013-01-11 08:04:00,
2013-01-11 02:05:00,37.9,37.6,29.73,SE,141,4.0,11.0,99,0.00,,,0.12,Wunderground v.1.15,2013-01-11 08:05:00,
2013-01-11 02:09:00,37.9,37.6,29.72,SSE,151,6.0,11.0,99,0.00,,,0.12,Wunderground v.1.15,2013-01-11 08:09:00,
2013-01-11 02:10:00,37.9,37.6,29.72,SE,146,5.0,11.0,99,0.00,,,0.12,Wunderground v.1.15,2013-01-11 08:10:00,
2013-01-11 02:14:00,37.9,37.6,29.72,SE,127,6.0,11.0,99,0.00,,,0.12,Wunderground v.1.15,2013-01-11 08:14:00,
2013-01-11 02:15:00,37.9,37.6,29.72,SE,136,5.0,11.0,99,0.00,,,0.12,Wunderground v.1.15,2013-01-11 08:15:00,
2013-01-11 02:16:00,37.9,37.6,29.72,SSE,148,7.0,11.0,99,0.00,,,0.13,Wunderground v.1.15,2013-01-11 08:16:00,
2013-01-11 02:17:00,37.9,37.6,29.72,ESE,121,6.0,11.0,99,0.00,,,0.13,Wunderground v.1.15,2013-01-11 08:17:00,
2013-01-11 02:20:00,37.9,37.6,29.72,SE,126,3.0,8.0,99,0.00,,,0.13,Wunderground v.1.15,2013-01-11 08:20:00,
2013-01-11 02:23:00,37.9,37.6,29.71,SE,126,5.0,8.0,99,0.00,,,0.13,Wunderground v.1.15,2013-01-11 08:23:00,
2013-01-11 02:24:00,37.9,37.6,29.71,ESE,111,6.0,8.0,99,0.00,,,0.13,Wunderground v.1.15,2013-01-11 08:24:00,
2013-01-11 02:25:00,37.9,37.6,29.71,ESE,110,4.0,8.0,99,0.00,,,0.13,Wunderground v.1.15,2013-01-11 08:25:00,
2013-01-11 02:29:00,37.9,37.6,29.71,ESE,110,3.0,4.0,99,0.00,,,0.13,Wunderground v.1.15,2013-01-11 08:29:00,
2013-01-11 02:30:00,37.9,37.6,29.71,ESE,120,7.0,10.0,99,0.00,,,0.13,Wunderground v.1.15,2013-01-11 08:30:00,
2013-01-11 02:34:00,38.0,37.7,29.71,ESE,105,4.0,10.0,99,0.00,,,0.13,Wunderground v.1.15,2013-01-11 08:34:00,
2013-01-11 02:35:00,38.0,37.7,29.71,SE,131,3.0,10.0,99,0.00,,,0.14,Wunderground v.1.15,2013-01-11 08:35:00,
2013-01-11 02:38:00,38.0,37.7,29.70,SE,136,4.0,5.0,99,0.00,,,0.14,Wunderground v.1.15,2013-01-11 08:38:00,
2013-01-11 02:42:00,38.0,37.7,29.70,ESE,120,4.0,8.0,99,0.00,,,0.14,Wunderground v.1.15,2013-01-11 08:42:00,
2013-01-11 02:43:00,38.0,37.7,29.70,ESE,116,10.0,10.0,99,0.00,,,0.14,Wunderground v.1.15,2013-01-11 08:43:00,
2013-01-11 02:44:00,38.0,37.7,29.70,ESE,118,5.0,10.0,99,0.00,,,0.14,Wunderground v.1.15,2013-01-11 08:44:00,
2013-01-11 02:48:00,38.2,37.9,29.70,SE,143,3.0,5.0,99,0.00,,,0.14,Wunderground v.1.15,2013-01-11 08:48:00,
2013-01-11 02:49:00,38.2,37.9,29.70,SSE,149,5.0,7.0,99,0.00,,,0.14,Wunderground v.1.15,2013-01-11 08:49:00,
2013-01-11 02:50:00,38.2,37.9,29.70,SE,134,7.0,7.0,99,0.00,,,0.14,Wunderground v.1.15,2013-01-11 08:50:00,
2013-01-11 02:54:00,38.2,37.9,29.69,SE,127,6.0,7.0,99,0.00,,,0.14,Wunderground v.1.15,2013-01-11 08:54:00,
2013-01-11 02:58:00,38.2,37.9,29.69,SE,144,6.0,6.0,99,0.00,,,0.14,Wunderground v.1.15,2013-01-11 08:58:00,
2013-01-11 02:59:00,38.2,37.9,29.69,SSE,148,6.0,7.0,99,0.00,,,0.14,Wunderground v.1.15,2013-01-11 08:59:00,
2013-01-11 03:00:00,38.3,38.0,29.69,SSE,148,4.0,7.0,99,0.00,,,0.14,Wunderground v.1.15,2013-01-11 09:00:00,
2013-01-11 03:04:00,38.3,38.0,29.69,SSE,160,3.0,8.0,99,0.00,,,0.14,Wunderground v.1.15,2013-01-11 09:04:00,
2013-01-11 03:05:00,38.3,38.0,29.69,SE,142,5.0,8.0,99,0.00,,,0.14,Wunderground v.1.15,2013-01-11 09:05:00,
2013-01-11 03:06:00,38.3,38.0,29.69,SE,143,4.0,8.0,99,0.00,,,0.14,Wunderground v.1.15,2013-01-11 09:06:00,
2013-01-11 03:10:00,38.3,38.0,29.68,SE,145,7.0,9.0,99,0.00,,,0.14,Wunderground v.1.15,2013-01-11 09:10:00,
2013-01-11 03:13:00,38.3,38.0,29.68,SSE,155,6.0,9.0,99,0.00,,,0.14,Wunderground v.1.15,2013-01-11 09:13:00,
2013-01-11 03:15:00,38.3,38.0,29.68,SSE,155,6.0,11.0,99,0.00,,,0.14,Wunderground v.1.15,2013-01-11 09:15:00,
2013-01-11 03:16:00,38.3,38.0,29.68,SSE,153,8.0,11.0,99,0.00,,,0.14,Wunderground v.1.15,2013-01-11 09:16:00,
2013-01-11 03:19:00,38.5,38.2,29.68,SE,135,6.0,11.0,99,0.00,,,0.14,Wunderground v.1.15,2013-01-11 09:19:00,
2013-01-11 03:20:00,38.5,38.2,29.68,SE,139,8.0,11.0,99,0.00,,,0.14,Wunderground v.1.15,2013-01-11 09:20:00,
2013-01-11 03:21:00,38.5,38.2,29.68,SSE,163,7.0,11.0,99,0.00,,,0.14,Wunderground v.1.15,2013-01-11 09:21:00,
2013-01-11 03:24:00,38.5,38.2,29.66,SSE,150,4.0,11.0,99,0.00,,,0.15,Wunderground v.1.15,2013-01-11 09:24:00,
2013-01-11 03:25:00,38.5,38.2,29.66,SE,144,6.0,11.0,99,0.00,,,0.15,Wunderground v.1.15,2013-01-11 09:25:00,
2013-01-11 03:29:00,38.5,38.2,29.66,SSE,152,8.0,11.0,99,0.00,,,0.15,Wunderground v.1.15,2013-01-11 09:29:00,
2013-01-11 03:32:00,38.5,38.2,29.66,SSE,155,11.0,13.0,99,0.00,,,0.15,Wunderground v.1.15,2013-01-11 09:32:00,
2013-01-11 03:34:00,38.5,38.2,29.66,SE,129,5.0,13.0,99,0.00,,,0.15,Wunderground v.1.15,2013-01-11 09:34:00,
2013-01-11 03:35:00,38.5,38.2,29.66,SSE,159,8.0,13.0,99,0.00,,,0.15,Wunderground v.1.15,2013-01-11 09:35:00,
2013-01-11 03:39:00,38.6,38.3,29.64,SE,133,8.0,12.0,99,0.00,,,0.15,Wunderground v.1.15,2013-01-11 09:39:00,
2013-01-11 03:40:00,38.6,38.3,29.64,SSE,148,12.0,15.0,99,0.00,,,0.15,Wunderground v.1.15,2013-01-11 09:40:00,
2013-01-11 03:43:00,38.6,38.3,29.64,SSE,162,12.0,15.0,99,0.00,,,0.15,Wunderground v.1.15,2013-01-11 09:43:00,
2013-01-11 03:44:00,38.6,38.3,29.64,SE,137,9.0,15.0,99,0.00,,,0.15,Wunderground v.1.15,2013-01-11 09:44:00,
2013-01-11 03:45:00,38.6,38.3,29.64,SE,140,14.0,15.0,99,0.00,,,0.15,Wunderground v.1.15,2013-01-11 09:45:00,
2013-01-11 03:49:00,38.6,38.3,29.64,SE,134,8.0,11.0,99,0.00,,,0.15,Wunderground v.1.15,2013-01-11 09:49:00,
2013-01-11 03:50:00,38.6,38.3,29.64,SE,129,11.0,11.0,99,0.00,,,0.15,Wunderground v.1.15,2013-01-11 09:50:00,
2013-01-11 03:54:00,38.8,38.5,29.63,South,170,4.0,11.0,99,0.00,,,0.16,Wunderground v.1.15,2013-01-11 09:54:00,
2013-01-11 03:55:00,38.8,38.5,29.63,SSE,150,6.0,11.0,99,0.00,,,0.16,Wunderground v.1.15,2013-01-11 09:55:00,
2013-01-11 03:58:00,38.9,38.6,29.63,SE,132,6.0,7.0,99,0.00,,,0.16,Wunderground v.1.15,2013-01-11 09:58:00,
2013-01-11 04:01:00,38.9,38.6,29.63,SE,145,6.0,11.0,99,0.00,,,0.16,Wunderground v.1.15,2013-01-11 10:01:00,
2013-01-11 04:04:00,39.1,38.8,29.63,SE,139,9.0,11.0,99,0.00,,,0.16,Wunderground v.1.15,2013-01-11 10:04:00,
2013-01-11 04:08:00,39.2,38.9,29.61,SE,142,9.0,9.0,99,0.00,,,0.16,Wunderground v.1.15,2013-01-11 10:08:00,
2013-01-11 04:09:00,39.2,38.9,29.61,SE,131,10.0,10.0,99,0.00,,,0.16,Wunderground v.1.15,2013-01-11 10:09:00,
2013-01-11 04:13:00,39.2,38.9,29.61,SE,141,7.0,11.0,99,0.00,,,0.16,Wunderground v.1.15,2013-01-11 10:13:00,
2013-01-11 04:14:00,39.3,39.0,29.61,ESE,114,10.0,11.0,99,0.00,,,0.17,Wunderground v.1.15,2013-01-11 10:14:00,
2013-01-11 04:15:00,39.3,39.0,29.61,SE,131,13.0,13.0,99,0.00,,,0.17,Wunderground v.1.15,2013-01-11 10:15:00,
2013-01-11 04:18:00,39.6,39.6,29.61,SSE,154,9.0,9.0,100,0.00,,,0.17,Wunderground v.1.15,2013-01-11 10:18:00,
2013-01-11 04:20:00,39.6,39.6,29.61,ESE,122,8.0,9.0,100,0.00,,,0.17,Wunderground v.1.15,2013-01-11 10:20:00,
2013-01-11 04:23:00,39.6,39.6,29.59,SSE,149,6.0,9.0,100,0.00,,,0.17,Wunderground v.1.15,2013-01-11 10:23:00,
2013-01-11 04:25:00,39.6,39.6,29.59,East,98,5.0,10.0,100,0.00,,,0.17,Wunderground v.1.15,2013-01-11 10:25:00,
2013-01-11 04:26:00,39.6,39.6,29.59,SE,131,9.0,10.0,100,0.00,,,0.17,Wunderground v.1.15,2013-01-11 10:26:00,
2013-01-11 04:29:00,39.6,39.6,29.59,SE,130,6.0,8.0,100,0.00,,,0.17,Wunderground v.1.15,2013-01-11 10:29:00,
2013-01-11 04:33:00,39.8,39.8,29.59,SE,134,5.0,10.0,100,0.00,,,0.17,Wunderground v.1.15,2013-01-11 10:33:00,
2013-01-11 04:34:00,39.8,39.8,29.59,SE,139,10.0,10.0,100,0.00,,,0.17,Wunderground v.1.15,2013-01-11 10:34:00,
2013-01-11 04:39:00,39.8,39.8,29.58,SSE,150,5.0,7.0,100,0.00,,,0.17,Wunderground v.1.15,2013-01-11 10:39:00,
2013-01-11 04:44:00,39.9,39.9,29.58,SSE,157,6.0,13.0,100,0.00,,,0.17,Wunderground v.1.15,2013-01-11 10:44:00,
2013-01-11 04:45:00,39.9,39.9,29.58,SE,130,10.0,13.0,100,0.00,,,0.17,Wunderground v.1.15,2013-01-11 10:45:00,
2013-01-11 04:49:00,40.1,40.1,29.58,SSE,158,7.0,10.0,100,0.00,,,0.17,Wunderground v.1.15,2013-01-11 10:49:00,
2013-01-11 04:50:00,40.1,40.1,29.58,ESE,120,6.0,10.0,100,0.00,,,0.17,Wunderground v.1.15,2013-01-11 10:50:00,
2013-01-11 04:53:00,40.2,40.2,29.58,SE,128,4.0,10.0,100,0.00,,,0.17,Wunderground v.1.15,2013-01-11 10:53:00,
2013-01-11 04:55:00,40.2,40.2,29.58,SSE,159,6.0,10.0,100,0.00,,,0.17,Wunderground v.1.15,2013-01-11 10:55:00,
2013-01-11 04:58:00,40.5,40.5,29.58,SE,146,4.0,7.0,100,0.00,,,0.17,Wunderground v.1.15,2013-01-11 10:58:00,
2013-01-11 04:59:00,40.5,40.5,29.58,South,172,4.0,7.0,100,0.00,,,0.17,Wunderground v.1.15,2013-01-11 10:59:00,
2013-01-11 05:00:00,40.6,40.6,29.58,South,172,4.0,7.0,100,0.00,,,0.17,Wunderground v.1.15,2013-01-11 11:00:00,
2013-01-11 05:04:00,40.6,40.6,29.58,SSE,155,6.0,7.0,100,0.00,,,0.17,Wunderground v.1.15,2013-01-11 11:04:00,
2013-01-11 05:06:00,40.6,40.6,29.58,SSE,148,4.0,10.0,100,0.00,,,0.17,Wunderground v.1.15,2013-01-11 11:06:00,
2013-01-11 05:09:00,40.8,40.8,29.58,SE,137,4.0,5.0,100,0.00,,,0.17,Wunderground v.1.15,2013-01-11 11:09:00,
2013-01-11 05:13:00,40.6,40.6,29.58,SSE,165,6.0,7.0,100,0.00,,,0.17,Wunderground v.1.15,2013-01-11 11:13:00,
2013-01-11 05:14:00,40.6,40.6,29.58,SSE,155,5.0,8.0,100,0.00,,,0.17,Wunderground v.1.15,2013-01-11 11:14:00,
2013-01-11 05:15:00,40.6,40.6,29.58,South,172,4.0,8.0,100,0.00,,,0.17,Wunderground v.1.15,2013-01-11 11:15:00,
2013-01-11 05:18:00,40.6,40.6,29.58,South,188,3.0,5.0,100,0.00,,,0.17,Wunderground v.1.15,2013-01-11 11:18:00,
2013-01-11 05:19:00,40.6,40.6,29.58,South,179,6.0,6.0,100,0.00,,,0.17,Wunderground v.1.15,2013-01-11 11:19:00,
2013-01-11 05:21:00,40.6,40.6,29.58,South,178,3.0,6.0,100,0.00,,,0.17,Wunderground v.1.15,2013-01-11 11:21:00,
2013-01-11 05:24:00,40.6,40.6,29.58,South,177,0.0,6.0,100,0.00,,,0.17,Wunderground v.1.15,2013-01-11 11:24:00,
2013-01-11 05:25:00,40.6,40.6,29.58,South,178,0.0,6.0,100,0.00,,,0.17,Wunderground v.1.15,2013-01-11 11:25:00,
2013-01-11 05:28:00,40.6,40.6,29.58,South,177,0.0,1.0,100,0.00,,,0.17,Wunderground v.1.15,2013-01-11 11:28:00,
2013-01-11 05:29:00,40.6,40.6,29.58,South,177,2.0,2.0,100,0.00,,,0.17,Wunderground v.1.15,2013-01-11 11:29:00,
2013-01-11 05:30:00,40.6,40.6,29.58,South,177,1.0,2.0,100,0.00,,,0.17,Wunderground v.1.15,2013-01-11 11:30:00,
2013-01-11 05:33:00,40.6,40.6,29.58,South,178,0.0,3.0,100,0.00,,,0.17,Wunderground v.1.15,2013-01-11 11:33:00,
2013-01-11 05:35:00,40.6,40.6,29.58,South,177,1.0,3.0,100,0.00,,,0.17,Wunderground v.1.15,2013-01-11 11:35:00,
2013-01-11 05:38:00,40.5,40.5,29.58,South,177,0.0,1.0,100,0.00,,,0.17,Wunderground v.1.15,2013-01-11 11:38:00,
2013-01-11 05:39:00,40.5,40.5,29.58,South,177,1.0,1.0,100,0.00,,,0.17,Wunderground v.1.15,2013-01-11 11:39:00,
2013-01-11 05:40:00,40.5,40.5,29.58,South,177,1.0,1.0,100,0.00,,,0.17,Wunderground v.1.15,2013-01-11 11:40:00,
2013-01-11 05:44:00,40.5,40.5,29.58,South,177,2.0,2.0,100,0.00,,,0.17,Wunderground v.1.15,2013-01-11 11:44:00,
2013-01-11 05:45:00,40.5,40.5,29.58,South,177,2.0,3.0,100,0.00,,,0.17,Wunderground v.1.15,2013-01-11 11:45:00,
2013-01-11 05:50:00,40.5,40.5,29.58,South,178,3.0,5.0,100,0.00,,,0.17,Wunderground v.1.15,2013-01-11 11:50:00,
2013-01-11 05:51:00,40.5,40.5,29.58,South,178,3.0,5.0,100,0.00,,,0.17,Wunderground v.1.15,2013-01-11 11:51:00,
2013-01-11 05:53:00,40.5,40.5,29.59,South,178,1.0,5.0,100,0.00,,,0.17,Wunderground v.1.15,2013-01-11 11:53:00,
2013-01-11 05:54:00,40.3,40.3,29.59,South,178,2.0,5.0,100,0.00,,,0.17,Wunderground v.1.15,2013-01-11 11:54:00,
2013-01-11 05:58:00,40.3,40.3,29.59,South,178,2.0,2.0,100,0.00,,,0.17,Wunderground v.1.15,2013-01-11 11:58:00,
2013-01-11 05:59:00,40.3,40.3,29.59,South,178,3.0,3.0,100,0.00,,,0.17,Wunderground v.1.15,2013-01-11 11:59:00,
2013-01-11 06:00:00,40.3,40.3,29.59,South,179,3.0,3.0,100,0.00,,,0.17,Wunderground v.1.15,2013-01-11 12:00:00,
2013-01-11 06:04:00,40.3,40.3,29.59,South,179,3.0,3.0,100,0.00,,,0.17,Wunderground v.1.15,2013-01-11 12:04:00,
2013-01-11 06:05:00,40.3,40.3,29.59,South,179,1.0,3.0,100,0.00,,,0.17,Wunderground v.1.15,2013-01-11 12:05:00,
2013-01-11 06:06:00,40.3,40.3,29.59,South,179,2.0,3.0,100,0.00,,,0.17,Wunderground v.1.15,2013-01-11 12:06:00,
2013-01-11 06:10:00,40.2,40.2,29.59,South,179,3.0,3.0,100,0.00,,,0.17,Wunderground v.1.15,2013-01-11 12:10:00,
2013-01-11 06:13:00,40.2,40.2,29.59,South,179,3.0,3.0,100,0.00,,,0.17,Wunderground v.1.15,2013-01-11 12:13:00,
2013-01-11 06:14:00,40.1,40.1,29.59,South,179,2.0,3.0,100,0.00,,,0.17,Wunderground v.1.15,2013-01-11 12:14:00,
2013-01-11 06:18:00,40.1,40.1,29.59,South,181,3.0,3.0,100,0.00,,,0.17,Wunderground v.1.15,2013-01-11 12:18:00,
2013-01-11 06:19:00,40.1,40.1,29.59,South,182,3.0,4.0,100,0.00,,,0.17,Wunderground v.1.15,2013-01-11 12:19:00,
2013-01-11 06:20:00,40.1,40.1,29.59,South,182,3.0,4.0,100,0.00,,,0.17,Wunderground v.1.15,2013-01-11 12:20:00,
2013-01-11 06:24:00,40.2,40.2,29.58,SSW,195,5.0,5.0,100,0.00,,,0.18,Wunderground v.1.15,2013-01-11 12:24:00,
2013-01-11 06:25:00,40.2,40.2,29.58,SSW,195,3.0,5.0,100,0.00,,,0.18,Wunderground v.1.15,2013-01-11 12:25:00,
2013-01-11 06:26:00,40.3,40.3,29.58,SSW,195,3.0,5.0,100,0.00,,,0.18,Wunderground v.1.15,2013-01-11 12:26:00,
2013-01-11 06:29:00,40.3,40.3,29.58,SSW,195,4.0,4.0,100,0.00,,,0.18,Wunderground v.1.15,2013-01-11 12:29:00,
2013-01-11 06:30:00,40.3,40.3,29.58,SSW,195,3.0,4.0,100,0.00,,,0.18,Wunderground v.1.15,2013-01-11 12:30:00,
2013-01-11 06:34:00,40.3,40.3,29.58,SSW,203,4.0,4.0,100,0.00,,,0.18,Wunderground v.1.15,2013-01-11 12:34:00,
2013-01-11 06:35:00,40.3,40.3,29.58,SSW,203,3.0,4.0,100,0.00,,,0.18,Wunderground v.1.15,2013-01-11 12:35:00,
2013-01-11 06:38:00,40.5,40.5,29.58,SSW,208,2.0,3.0,100,0.00,,,0.18,Wunderground v.1.15,2013-01-11 12:38:00,
2013-01-11 06:39:00,40.5,40.5,29.58,SSW,212,4.0,4.0,100,0.00,,,0.18,Wunderground v.1.15,2013-01-11 12:39:00,
2013-01-11 06:41:00,40.5,40.5,29.58,SSW,209,3.0,4.0,100,0.00,,,0.18,Wunderground v.1.15,2013-01-11 12:41:00,
2013-01-11 06:44:00,40.6,40.6,29.58,SW,219,4.0,4.0,100,0.00,,,0.18,Wunderground v.1.15,2013-01-11 12:44:00,
2013-01-11 06:45:00,40.6,40.6,29.58,SW,219,3.0,4.0,100,0.00,,,0.18,Wunderground v.1.15,2013-01-11 12:45:00,
2013-01-11 06:48:00,40.6,40.6,29.58,SW,224,2.0,3.0,100,0.00,,,0.18,Wunderground v.1.15,2013-01-11 12:48:00,
2013-01-11 06:49:00,40.6,40.6,29.58,SW,224,2.0,3.0,100,0.00,,,0.18,Wunderground v.1.15,2013-01-11 12:49:00,
2013-01-11 06:50:00,40.5,40.5,29.58,SW,224,2.0,3.0,100,0.00,,,0.18,Wunderground v.1.15,2013-01-11 12:50:00,
2013-01-11 06:53:00,40.2,40.2,29.59,SW,224,1.0,3.0,100,0.00,,,0.18,Wunderground v.1.15,2013-01-11 12:53:00,
2013-01-11 06:54:00,40.2,40.2,29.59,SW,224,2.0,3.0,100,0.00,,,0.18,Wunderground v.1.15,2013-01-11 12:54:00,
2013-01-11 06:55:00,40.2,40.2,29.59,SW,233,3.0,3.0,100,0.00,,,0.18,Wunderground v.1.15,2013-01-11 12:55:00,
2013-01-11 06:56:00,40.1,40.1,29.59,WSW,247,2.0,4.0,100,0.00,,,0.19,Wunderground v.1.15,2013-01-11 12:56:00,
2013-01-11 06:59:00,39.9,39.9,29.59,WSW,247,2.0,3.0,100,0.00,,,0.19,Wunderground v.1.15,2013-01-11 12:59:00,
2013-01-11 07:00:00,39.9,39.9,29.59,WSW,241,3.0,3.0,100,0.00,,,0.19,Wunderground v.1.15,2013-01-11 13:00:00,
2013-01-11 07:02:00,40.1,40.1,29.59,SW,224,5.0,5.0,100,0.00,,,0.19,Wunderground v.1.15,2013-01-11 13:02:00,
2013-01-11 07:05:00,40.2,40.2,29.59,WSW,246,3.0,5.0,100,0.00,,,0.19,Wunderground v.1.15,2013-01-11 13:05:00,
2013-01-11 07:08:00,40.1,40.1,29.60,SW,233,4.0,4.0,100,0.00,,,0.19,Wunderground v.1.15,2013-01-11 13:08:00,
2013-01-11 07:10:00,40.1,40.1,29.60,SW,217,4.0,5.0,100,0.00,,,0.19,Wunderground v.1.15,2013-01-11 13:10:00,
2013-01-11 07:14:00,40.1,40.1,29.60,SW,224,6.0,6.0,100,0.00,,,0.19,Wunderground v.1.15,2013-01-11 13:14:00,
2013-01-11 07:16:00,40.2,40.2,29.60,SW,223,5.0,6.0,100,0.00,,,0.19,Wunderground v.1.15,2013-01-11 13:16:00,
2013-01-11 07:19:00,40.2,40.2,29.60,SSW,211,5.0,6.0,100,0.00,,,0.19,Wunderground v.1.15,2013-01-11 13:19:00,
2013-01-11 07:20:00,40.2,40.2,29.60,SSW,210,3.0,6.0,100,0.00,,,0.19,Wunderground v.1.15,2013-01-11 13:20:00,
2013-01-11 07:21:00,40.3,40.3,29.60,SW,221,4.0,6.0,100,0.00,,,0.19,Wunderground v.1.15,2013-01-11 13:21:00,
2013-01-11 07:24:00,40.3,40.3,29.61,SW,224,5.0,6.0,100,0.00,,,0.19,Wunderground v.1.15,2013-01-11 13:24:00,
2013-01-11 07:25:00,40.3,40.3,29.61,SW,221,4.0,6.0,100,0.00,,,0.19,Wunderground v.1.15,2013-01-11 13:25:00,
2013-01-11 07:28:00,40.5,40.5,29.61,WSW,241,8.0,10.0,100,0.00,,,0.20,Wunderground v.1.15,2013-01-11 13:28:00,
2013-01-11 07:29:00,40.5,40.5,29.61,SW,229,4.0,10.0,100,0.00,,,0.20,Wunderground v.1.15,2013-01-11 13:29:00,
2013-01-11 07:30:00,40.6,40.6,29.61,SW,231,6.0,10.0,100,0.00,,,0.20,Wunderground v.1.15,2013-01-11 13:30:00,
2013-01-11 07:33:00,40.8,40.8,29.61,SW,217,6.0,10.0,100,0.00,,,0.20,Wunderground v.1.15,2013-01-11 13:33:00,
2013-01-11 07:35:00,40.8,40.8,29.61,SW,221,9.0,10.0,100,0.00,,,0.20,Wunderground v.1.15,2013-01-11 13:35:00,
2013-01-11 07:37:00,40.9,40.9,29.61,SW,231,6.0,10.0,100,0.00,,,0.20,Wunderground v.1.15,2013-01-11 13:37:00,
2013-01-11 07:38:00,40.9,40.9,29.61,SW,217,4.0,9.0,100,0.00,,,0.20,Wunderground v.1.15,2013-01-11 13:38:00,
2013-01-11 07:39:00,40.9,40.9,29.61,SSW,213,4.0,9.0,100,0.00,,,0.20,Wunderground v.1.15,2013-01-11 13:39:00,
2013-01-11 07:43:00,41.1,41.1,29.61,SW,232,6.0,9.0,100,0.00,,,0.20,Wunderground v.1.15,2013-01-11 13:43:00,
2013-01-11 07:44:00,41.1,41.1,29.61,WSW,245,4.0,9.0,100,0.00,,,0.20,Wunderground v.1.15,2013-01-11 13:44:00,
2013-01-11 07:48:00,41.2,41.2,29.61,WSW,242,6.0,7.0,100,0.00,,,0.20,Wunderground v.1.15,2013-01-11 13:48:00,
2013-01-11 07:49:00,41.1,41.1,29.61,WSW,245,5.0,7.0,100,0.00,,,0.20,Wunderground v.1.15,2013-01-11 13:49:00,
2013-01-11 07:50:00,41.1,41.1,29.61,WSW,251,6.0,10.0,100,0.00,,,0.20,Wunderground v.1.15,2013-01-11 13:50:00,
2013-01-11 07:54:00,40.8,40.8,29.61,West,280,4.0,10.0,100,0.00,,,0.20,Wunderground v.1.15,2013-01-11 13:54:00,
2013-01-11 07:55:00,40.6,40.6,29.61,West,276,5.0,10.0,100,0.00,,,0.20,Wunderground v.1.15,2013-01-11 13:55:00,
2013-01-11 07:58:00,40.3,40.3,29.61,West,267,5.0,6.0,100,0.00,,,0.20,Wunderground v.1.15,2013-01-11 13:58:00,
2013-01-11 07:59:00,40.3,40.3,29.61,West,264,4.0,6.0,100,0.00,,,0.20,Wunderground v.1.15,2013-01-11 13:59:00,
2013-01-11 08:00:00,40.3,40.3,29.61,WSW,250,4.0,6.0,100,0.00,,,0.20,Wunderground v.1.15,2013-01-11 14:00:00,
2013-01-11 08:05:00,40.3,40.3,29.61,West,262,5.0,7.0,100,0.00,,,0.20,Wunderground v.1.15,2013-01-11 14:05:00,
2013-01-11 08:06:00,40.3,40.3,29.61,West,273,7.0,7.0,100,0.00,,,0.20,Wunderground v.1.15,2013-01-11 14:06:00,
2013-01-11 08:10:00,40.2,40.2,29.61,West,262,9.0,9.0,100,0.00,,,0.20,Wunderground v.1.15,2013-01-11 14:10:00,
2013-01-11 08:13:00,40.1,40.1,29.61,West,280,6.0,9.0,100,0.00,,,0.20,Wunderground v.1.15,2013-01-11 14:13:00,
2013-01-11 08:15:00,40.1,40.1,29.61,WSW,254,7.0,9.0,100,0.00,,,0.20,Wunderground v.1.15,2013-01-11 14:15:00,
2013-01-11 08:18:00,40.3,40.3,29.61,West,269,4.0,6.0,100,0.00,,,0.20,Wunderground v.1.15,2013-01-11 14:18:00,
2013-01-11 08:19:00,40.5,40.5,29.61,West,263,9.0,11.0,100,0.00,,,0.20,Wunderground v.1.15,2013-01-11 14:19:00,
2013-01-11 08:20:00,40.5,40.5,29.61,WNW,285,6.0,11.0,100,0.00,,,0.20,Wunderground v.1.15,2013-01-11 14:20:00,
2013-01-11 08:23:00,40.6,40.6,29.61,NW,306,3.0,11.0,100,0.00,,,0.20,Wunderground v.1.15,2013-01-11 14:23:00,
2013-01-11 08:25:00,40.6,40.6,29.61,WNW,285,3.0,11.0,100,0.00,,,0.20,Wunderground v.1.15,2013-01-11 14:25:00,
2013-01-11 08:26:00,40.8,40.8,29.61,WNW,299,6.0,11.0,100,0.00,,,0.20,Wunderground v.1.15,2013-01-11 14:26:00,
2013-01-11 08:30:00,40.8,40.8,29.61,WNW,293,4.0,7.0,100,0.00,,,0.20,Wunderground v.1.15,2013-01-11 14:30:00,
2013-01-11 08:34:00,41.2,41.2,29.61,WNW,283,8.0,8.0,100,0.00,,,0.20,Wunderground v.1.15,2013-01-11 14:34:00,
2013-01-11 08:35:00,41.2,41.2,29.61,WNW,290,5.0,10.0,100,0.00,,,0.20,Wunderground v.1.15,2013-01-11 14:35:00,
2013-01-11 08:36:00,41.3,41.3,29.61,NW,307,8.0,10.0,100,0.00,,,0.20,Wunderground v.1.15,2013-01-11 14:36:00,
2013-01-11 08:38:00,41.5,41.5,29.61,WNW,285,6.0,6.0,100,0.00,,,0.20,Wunderground v.1.15,2013-01-11 14:38:00,
2013-01-11 08:40:00,41.6,41.6,29.61,West,274,7.0,11.0,100,0.00,,,0.20,Wunderground v.1.15,2013-01-11 14:40:00,
2013-01-11 08:43:00,41.6,41.6,29.61,WNW,287,9.0,11.0,100,0.00,,,0.20,Wunderground v.1.15,2013-01-11 14:43:00,
2013-01-11 08:44:00,41.8,41.8,29.61,West,266,10.0,11.0,100,0.00,,,0.20,Wunderground v.1.15,2013-01-11 14:44:00,
2013-01-11 08:45:00,41.8,41.8,29.61,West,277,9.0,11.0,100,0.00,,,0.20,Wunderground v.1.15,2013-01-11 14:45:00,
2013-01-11 08:48:00,41.9,41.9,29.61,WNW,300,3.0,7.0,100,0.00,,,0.20,Wunderground v.1.15,2013-01-11 14:48:00,
2013-01-11 08:50:00,41.9,41.9,29.61,WNW,291,3.0,7.0,100,0.00,,,0.20,Wunderground v.1.15,2013-01-11 14:50:00,
2013-01-11 08:51:00,41.9,41.9,29.61,WNW,290,4.0,7.0,100,0.00,,,0.20,Wunderground v.1.15,2013-01-11 14:51:00,
2013-01-11 08:53:00,42.1,42.1,29.59,WNW,288,6.0,7.0,100,0.00,,,0.20,Wunderground v.1.15,2013-01-11 14:53:00,
2013-01-11 08:55:00,42.1,42.1,29.59,WNW,299,2.0,7.0,100,0.00,,,0.20,Wunderground v.1.15,2013-01-11 14:55:00,
2013-01-11 08:58:00,42.2,42.2,29.59,WNW,286,7.0,7.0,100,0.00,,,0.20,Wunderground v.1.15,2013-01-11 14:58:00,
2013-01-11 08:59:00,42.2,42.2,29.59,WNW,293,5.0,7.0,100,0.00,,,0.20,Wunderground v.1.15,2013-01-11 14:59:00,
2013-01-11 09:00:00,42.2,42.2,29.59,WNW,290,5.0,7.0,100,0.00,,,0.20,Wunderground v.1.15,2013-01-11 15:00:00,
2013-01-11 09:03:00,42.3,42.3,29.59,WNW,285,4.0,7.0,100,0.00,,,0.20,Wunderground v.1.15,2013-01-11 15:03:00,
2013-01-11 09:04:00,42.3,42.3,29.59,WNW,283,5.0,7.0,100,0.00,,,0.20,Wunderground v.1.15,2013-01-11 15:04:00,
2013-01-11 09:05:00,42.3,42.3,29.59,WSW,257,5.0,7.0,100,0.00,,,0.20,Wunderground v.1.15,2013-01-11 15:05:00,
2013-01-11 09:08:00,42.5,42.5,29.59,West,274,5.0,6.0,100,0.00,,,0.20,Wunderground v.1.15,2013-01-11 15:08:00,
2013-01-11 09:09:00,42.5,42.5,29.59,WNW,284,5.0,6.0,100,0.00,,,0.20,Wunderground v.1.15,2013-01-11 15:09:00,
2013-01-11 09:10:00,42.5,42.5,29.59,WNW,285,4.0,6.0,100,0.00,,,0.20,Wunderground v.1.15,2013-01-11 15:10:00,
2013-01-11 09:14:00,42.6,42.6,29.59,West,273,4.0,6.0,100,0.00,,,0.20,Wunderground v.1.15,2013-01-11 15:14:00,
2013-01-11 09:15:00,42.6,42.6,29.59,West,275,6.0,8.0,100,0.00,,,0.20,Wunderground v.1.15,2013-01-11 15:15:00,
2013-01-11 09:20:00,42.8,42.8,29.59,West,281,6.0,8.0,100,0.00,,,0.20,Wunderground v.1.15,2013-01-11 15:20:00,
2013-01-11 09:23:00,42.8,42.8,29.59,WNW,283,6.0,8.0,100,0.00,,,0.20,Wunderground v.1.15,2013-01-11 15:23:00,
2013-01-11 09:24:00,42.9,42.9,29.59,West,276,6.0,8.0,100,0.00,,,0.20,Wunderground v.1.15,2013-01-11 15:24:00,
2013-01-11 09:28:00,42.9,42.9,29.59,West,278,4.0,6.0,100,0.00,,,0.20,Wunderground v.1.15,2013-01-11 15:28:00,
2013-01-11 09:30:00,42.9,42.9,29.59,WNW,289,4.0,6.0,100,0.00,,,0.20,Wunderground v.1.15,2013-01-11 15:30:00,
2013-01-11 09:33:00,43.1,43.1,29.59,WNW,284,4.0,6.0,100,0.00,,,0.20,Wunderground v.1.15,2013-01-11 15:33:00,
2013-01-11 09:34:00,43.1,43.1,29.59,WNW,285,6.0,6.0,100,0.00,,,0.20,Wunderground v.1.15,2013-01-11 15:34:00,
2013-01-11 09:35:00,43.2,43.2,29.59,West,264,6.0,6.0,100,0.00,,,0.20,Wunderground v.1.15,2013-01-11 15:35:00,
2013-01-11 09:38:00,43.3,43.3,29.59,West,271,6.0,6.0,100,0.00,,,0.20,Wunderground v.1.15,2013-01-11 15:38:00,
2013-01-11 09:39:00,43.3,43.3,29.59,West,267,6.0,6.0,100,0.00,,,0.20,Wunderground v.1.15,2013-01-11 15:39:00,
2013-01-11 09:40:00,43.3,43.3,29.59,West,268,6.0,8.0,100,0.00,,,0.20,Wunderground v.1.15,2013-01-11 15:40:00,
2013-01-11 09:44:00,43.5,43.5,29.59,WSW,252,7.0,8.0,100,0.00,,,0.20,Wunderground v.1.15,2013-01-11 15:44:00,
2013-01-11 09:46:00,43.5,43.5,29.59,SW,236,7.0,10.0,100,0.00,,,0.20,Wunderground v.1.15,2013-01-11 15:46:00,
2013-01-11 09:49:00,43.6,43.6,29.59,SW,233,5.0,8.0,100,0.00,,,0.20,Wunderground v.1.15,2013-01-11 15:49:00,
2013-01-11 09:50:00,43.6,43.6,29.59,SW,226,7.0,8.0,100,0.00,,,0.20,Wunderground v.1.15,2013-01-11 15:50:00,
2013-01-11 09:53:00,43.6,43.6,29.59,WSW,241,6.0,8.0,100,0.00,,,0.20,Wunderground v.1.15,2013-01-11 15:53:00,
2013-01-11 09:54:00,43.8,43.8,29.59,WSW,239,10.0,12.0,100,0.00,,,0.20,Wunderground v.1.15,2013-01-11 15:54:00,
2013-01-11 09:55:00,43.8,43.8,29.59,WSW,243,7.0,12.0,100,0.00,,,0.20,Wunderground v.1.15,2013-01-11 15:55:00,
2013-01-11 09:56:00,43.8,43.8,29.59,West,262,11.0,13.0,100,0.00,,,0.20,Wunderground v.1.15,2013-01-11 15:56:00,
2013-01-11 09:59:00,43.8,43.8,29.59,West,266,9.0,12.0,100,0.00,,,0.20,Wunderground v.1.15,2013-01-11 15:59:00,
2013-01-11 10:00:00,43.8,43.8,29.59,WSW,242,9.0,12.0,100,0.00,,,0.20,Wunderground v.1.15,2013-01-11 16:00:00,
2013-01-11 10:03:00,43.9,43.9,29.59,WSW,242,6.0,12.0,100,0.00,,,0.20,Wunderground v.1.15,2013-01-11 16:03:00,
2013-01-11 10:04:00,43.9,43.9,29.59,WSW,244,9.0,12.0,100,0.00,,,0.20,Wunderground v.1.15,2013-01-11 16:04:00,
2013-01-11 10:05:00,43.9,43.9,29.59,West,279,9.0,12.0,100,0.00,,,0.20,Wunderground v.1.15,2013-01-11 16:05:00,
2013-01-11 10:08:00,43.9,43.9,29.60,WSW,257,11.0,11.0,100,0.00,,,0.20,Wunderground v.1.15,2013-01-11 16:08:00,
2013-01-11 10:10:00,43.9,43.9,29.60,West,259,6.0,11.0,100,0.00,,,0.20,Wunderground v.1.15,2013-01-11 16:10:00,
2013-01-11 10:11:00,44.1,44.1,29.60,WSW,252,9.0,12.0,100,0.00,,,0.20,Wunderground v.1.15,2013-01-11 16:11:00,
2013-01-11 10:13:00,44.1,44.1,29.60,WSW,252,9.0,12.0,100,0.00,,,0.20,Wunderground v.1.15,2013-01-11 16:13:00,
2013-01-11 10:14:00,44.1,44.1,29.60,WSW,252,11.0,12.0,100,0.00,,,0.20,Wunderground v.1.15,2013-01-11 16:14:00,
2013-01-11 10:18:00,44.3,44.3,29.60,WSW,246,8.0,9.0,100,0.00,,,0.20,Wunderground v.1.15,2013-01-11 16:18:00,
2013-01-11 10:19:00,44.2,44.2,29.60,WSW,242,10.0,11.0,100,0.00,,,0.20,Wunderground v.1.15,2013-01-11 16:19:00,
2013-01-11 10:23:00,44.2,44.2,29.61,WSW,238,7.0,11.0,100,0.00,,,0.20,Wunderground v.1.15,2013-01-11 16:23:00,
2013-01-11 10:24:00,44.2,44.2,29.61,SW,233,10.0,11.0,100,0.00,,,0.20,Wunderground v.1.15,2013-01-11 16:24:00,
2013-01-11 10:25:00,44.3,44.3,29.61,SW,233,9.0,12.0,100,0.00,,,0.20,Wunderground v.1.15,2013-01-11 16:25:00,
2013-01-11 10:28:00,44.2,44.2,29.61,WSW,256,7.0,9.0,100,0.00,,,0.20,Wunderground v.1.15,2013-01-11 16:28:00,
2013-01-11 10:29:00,44.2,44.2,29.61,WSW,240,8.0,9.0,100,0.00,,,0.20,Wunderground v.1.15,2013-01-11 16:29:00,
2013-01-11 10:30:00,44.1,44.1,29.61,SW,223,6.0,11.0,100,0.00,,,0.20,Wunderground v.1.15,2013-01-11 16:30:00,
2013-01-11 10:33:00,43.9,43.9,29.61,WSW,241,10.0,12.0,100,0.00,,,0.20,Wunderground v.1.15,2013-01-11 16:33:00,
2013-01-11 10:34:00,43.9,43.9,29.61,SW,236,10.0,14.0,100,0.00,,,0.20,Wunderground v.1.15,2013-01-11 16:34:00,
2013-01-11 10:36:00,43.9,43.9,29.61,WSW,242,7.0,14.0,100,0.00,,,0.20,Wunderground v.1.15,2013-01-11 16:36:00,
2013-01-11 10:39:00,43.9,43.9,29.61,WSW,238,6.0,8.0,100,0.00,,,0.20,Wunderground v.1.15,2013-01-11 16:39:00,
2013-01-11 10:41:00,43.9,43.9,29.61,WSW,257,9.0,12.0,100,0.00,,,0.20,Wunderground v.1.15,2013-01-11 16:41:00,
2013-01-11 10:43:00,43.9,43.9,29.61,SW,229,9.0,12.0,100,0.00,,,0.20,Wunderground v.1.15,2013-01-11 16:43:00,
2013-01-11 10:45:00,43.9,43.9,29.61,WSW,248,4.0,12.0,100,0.00,,,0.20,Wunderground v.1.15,2013-01-11 16:45:00,
2013-01-11 10:48:00,43.9,43.9,29.61,WSW,250,10.0,10.0,100,0.00,,,0.20,Wunderground v.1.15,2013-01-11 16:48:00,
2013-01-11 10:49:00,43.8,43.8,29.61,WSW,251,10.0,13.0,100,0.00,,,0.20,Wunderground v.1.15,2013-01-11 16:49:00,
2013-01-11 10:51:00,43.8,43.8,29.61,West,273,14.0,14.0,100,0.00,,,0.20,Wunderground v.1.15,2013-01-11 16:51:00,
2013-01-11 10:54:00,43.5,43.5,29.62,WSW,251,11.0,16.0,100,0.00,,,0.20,Wunderground v.1.15,2013-01-11 16:54:00,
2013-01-11 10:55:00,43.3,43.3,29.62,SW,225,14.0,16.0,100,0.00,,,0.20,Wunderground v.1.15,2013-01-11 16:55:00,
2013-01-11 10:58:00,43.2,43.2,29.62,WSW,242,13.0,15.0,100,0.00,,,0.20,Wunderground v.1.15,2013-01-11 16:58:00,
2013-01-11 10:59:00,43.3,43.3,29.62,WSW,248,11.0,15.0,100,0.00,,,0.20,Wunderground v.1.15,2013-01-11 16:59:00,
2013-01-11 11:00:00,43.3,43.3,29.62,WSW,257,10.0,15.0,100,0.00,,,0.20,Wunderground v.1.15,2013-01-11 17:00:00,
2013-01-11 11:03:00,43.3,43.3,29.62,WSW,257,10.0,16.0,100,0.00,,,0.20,Wunderground v.1.15,2013-01-11 17:03:00,
2013-01-11 11:04:00,43.3,43.3,29.62,SW,233,7.0,16.0,100,0.00,,,0.20,Wunderground v.1.15,2013-01-11 17:04:00,
2013-01-11 11:05:00,43.3,43.3,29.62,WSW,240,11.0,16.0,100,0.00,,,0.20,Wunderground v.1.15,2013-01-11 17:05:00,
2013-01-11 11:06:00,43.3,43.3,29.62,West,264,6.0,16.0,100,0.00,,,0.20,Wunderground v.1.15,2013-01-11 17:06:00,
2013-01-11 11:09:00,43.6,43.6,29.62,West,260,11.0,11.0,100,0.00,,,0.20,Wunderground v.1.15,2013-01-11 17:09:00,
2013-01-11 11:10:00,43.6,43.6,29.62,WSW,240,14.0,14.0,100,0.00,,,0.20,Wunderground v.1.15,2013-01-11 17:10:00,
2013-01-11 11:13:00,43.6,43.6,29.62,WSW,246,19.0,19.0,100,0.00,,,0.20,Wunderground v.1.15,2013-01-11 17:13:00,
2013-01-11 11:15:00,43.8,43.8,29.62,WSW,252,16.0,19.0,100,0.00,,,0.20,Wunderground v.1.15,2013-01-11 17:15:00,
2013-01-11 11:17:00,43.8,43.8,29.62,WNW,283,15.0,19.0,100,0.00,,,0.20,Wunderground v.1.15,2013-01-11 17:17:00,
2013-01-11 11:18:00,43.8,43.8,29.62,West,262,12.0,12.0,100,0.00,,,0.20,Wunderground v.1.15,2013-01-11 17:18:00,
2013-01-11 11:19:00,43.8,43.8,29.62,West,273,11.0,14.0,100,0.00,,,0.20,Wunderground v.1.15,2013-01-11 17:19:00,
2013-01-11 11:21:00,43.8,43.8,29.62,West,271,10.0,14.0,100,0.00,,,0.20,Wunderground v.1.15,2013-01-11 17:21:00,
2013-01-11 11:24:00,43.9,43.9,29.62,West,272,11.0,14.0,100,0.00,,,0.20,Wunderground v.1.15,2013-01-11 17:24:00,
2013-01-11 11:25:00,43.9,43.9,29.62,WSW,249,17.0,17.0,100,0.00,,,0.20,Wunderground v.1.15,2013-01-11 17:25:00,
2013-01-11 11:28:00,43.9,43.9,29.62,West,274,11.0,16.0,100,0.00,,,0.20,Wunderground v.1.15,2013-01-11 17:28:00,
2013-01-11 11:29:00,43.9,43.9,29.62,WSW,251,13.0,16.0,100,0.00,,,0.20,Wunderground v.1.15,2013-01-11 17:29:00,
2013-01-11 11:30:00,43.9,43.9,29.62,WSW,255,6.0,16.0,100,0.00,,,0.20,Wunderground v.1.15,2013-01-11 17:30:00,
2013-01-11 11:32:00,43.8,43.8,29.62,WSW,257,14.0,16.0,100,0.00,,,0.20,Wunderground v.1.15,2013-01-11 17:32:00,
2013-01-11 11:33:00,43.8,43.8,29.62,West,271,9.0,16.0,100,0.00,,,0.20,Wunderground v.1.15,2013-01-11 17:33:00,
2013-01-11 11:35:00,43.8,43.8,29.62,WSW,243,6.0,16.0,100,0.00,,,0.20,Wunderground v.1.15,2013-01-11 17:35:00,
2013-01-11 11:40:00,43.6,43.6,29.62,WSW,247,9.0,17.0,100,0.00,,,0.20,Wunderground v.1.15,2013-01-11 17:40:00,
2013-01-11 11:41:00,43.6,43.6,29.62,WSW,238,11.0,17.0,100,0.00,,,0.20,Wunderground v.1.15,2013-01-11 17:41:00,
2013-01-11 11:44:00,43.5,43.5,29.62,WNW,299,11.0,18.0,100,0.00,,,0.20,Wunderground v.1.15,2013-01-11 17:44:00,
2013-01-11 11:48:00,43.2,43.2,29.62,WSW,254,14.0,14.0,100,0.00,,,0.20,Wunderground v.1.15,2013-01-11 17:48:00,
2013-01-11 11:49:00,43.2,43.2,29.62,WSW,255,14.0,15.0,100,0.00,,,0.20,Wunderground v.1.15,2013-01-11 17:49:00,
2013-01-11 11:54:00,43.2,43.2,29.61,SW,228,9.0,15.0,100,0.00,,,0.20,Wunderground v.1.15,2013-01-11 17:54:00,
2013-01-11 11:55:00,43.2,43.2,29.61,WSW,250,13.0,15.0,100,0.00,,,0.20,Wunderground v.1.15,2013-01-11 17:55:00,
2013-01-11 11:59:00,43.2,43.2,29.61,WSW,243,4.0,13.0,100,0.00,,,0.20,Wunderground v.1.15,2013-01-11 17:59:00,
2013-01-11 12:01:00,43.2,43.2,29.61,WSW,252,7.0,13.0,100,0.00,,,0.20,Wunderground v.1.15,2013-01-11 18:01:00,
2013-01-11 12:04:00,43.2,43.2,29.61,West,259,6.0,13.0,100,0.00,,,0.20,Wunderground v.1.15,2013-01-11 18:04:00,
2013-01-11 12:05:00,43.2,43.2,29.61,West,262,11.0,13.0,100,0.00,,,0.20,Wunderground v.1.15,2013-01-11 18:05:00,
2013-01-11 12:09:00,43.2,43.2,29.60,West,268,10.0,10.0,100,0.00,,,0.20,Wunderground v.1.15,2013-01-11 18:09:00,
2013-01-11 12:10:00,43.2,43.2,29.60,WNW,285,7.0,10.0,100,0.00,,,0.20,Wunderground v.1.15,2013-01-11 18:10:00,
2013-01-11 12:15:00,43.2,43.2,29.60,WSW,257,7.0,14.0,100,0.00,,,0.20,Wunderground v.1.15,2013-01-11 18:15:00,
2013-01-11 12:18:00,43.2,43.2,29.60,West,266,5.0,9.0,100,0.00,,,0.20,Wunderground v.1.15,2013-01-11 18:18:00,
2013-01-11 12:21:00,43.2,43.2,29.60,West,277,15.0,15.0,100,0.00,,,0.20,Wunderground v.1.15,2013-01-11 18:21:00,
2013-01-11 12:23:00,43.2,43.2,29.61,West,266,14.0,16.0,100,0.00,,,0.20,Wunderground v.1.15,2013-01-11 18:23:00,
2013-01-11 12:24:00,43.2,43.2,29.61,WSW,257,13.0,17.0,100,0.00,,,0.20,Wunderground v.1.15,2013-01-11 18:24:00,
2013-01-11 12:28:00,43.2,43.2,29.61,West,275,7.0,12.0,100,0.00,,,0.20,Wunderground v.1.15,2013-01-11 18:28:00,
2013-01-11 12:29:00,43.2,43.2,29.61,WSW,257,12.0,15.0,100,0.00,,,0.20,Wunderground v.1.15,2013-01-11 18:29:00,
2013-01-11 12:31:00,43.2,43.2,29.61,WNW,286,4.0,15.0,100,0.00,,,0.20,Wunderground v.1.15,2013-01-11 18:31:00,
2013-01-11 12:34:00,43.2,43.2,29.61,West,267,11.0,18.0,100,0.00,,,0.20,Wunderground v.1.15,2013-01-11 18:34:00,
2013-01-11 12:36:00,43.3,43.3,29.61,WSW,253,12.0,18.0,100,0.00,,,0.20,Wunderground v.1.15,2013-01-11 18:36:00,
2013-01-11 12:38:00,43.3,43.3,29.61,WSW,244,15.0,15.0,100,0.00,,,0.20,Wunderground v.1.15,2013-01-11 18:38:00,
2013-01-11 12:40:00,43.3,43.3,29.61,WSW,240,9.0,17.0,100,0.00,,,0.20,Wunderground v.1.15,2013-01-11 18:40:00,
2013-01-11 12:43:00,43.3,43.3,29.61,SW,233,11.0,17.0,100,0.00,,,0.20,Wunderground v.1.15,2013-01-11 18:43:00,
2013-01-11 12:45:00,43.3,43.3,29.61,WSW,242,12.0,17.0,100,0.00,,,0.20,Wunderground v.1.15,2013-01-11 18:45:00,
2013-01-11 12:46:00,43.3,43.3,29.61,SW,226,10.0,17.0,100,0.00,,,0.20,Wunderground v.1.15,2013-01-11 18:46:00,
2013-01-11 12:48:00,43.3,43.3,29.61,WSW,249,13.0,14.0,100,0.00,,,0.20,Wunderground v.1.15,2013-01-11 18:48:00,
2013-01-11 12:50:00,43.3,43.3,29.61,WSW,255,10.0,14.0,100,0.00,,,0.20,Wunderground v.1.15,2013-01-11 18:50:00,
2013-01-11 12:53:00,43.3,43.3,29.62,WSW,240,6.0,14.0,100,0.00,,,0.20,Wunderground v.1.15,2013-01-11 18:53:00,
2013-01-11 12:54:00,43.3,43.3,29.62,WSW,252,10.0,14.0,100,0.00,,,0.20,Wunderground v.1.15,2013-01-11 18:54:00,
2013-01-11 12:55:00,43.3,43.3,29.62,West,274,8.0,14.0,100,0.00,,,0.20,Wunderground v.1.15,2013-01-11 18:55:00,
2013-01-11 12:58:00,43.3,43.3,29.62,WSW,248,7.0,11.0,100,0.00,,,0.20,Wunderground v.1.15,2013-01-11 18:58:00,
2013-01-11 12:59:00,43.3,43.3,29.62,WSW,241,9.0,11.0,100,0.00,,,0.20,Wunderground v.1.15,2013-01-11 18:59:00,
2013-01-11 13:03:00,43.5,43.5,29.62,SW,230,7.0,13.0,100,0.00,,,0.20,Wunderground v.1.15,2013-01-11 19:03:00,
2013-01-11 13:04:00,43.5,43.5,29.62,SW,225,5.0,13.0,100,0.00,,,0.20,Wunderground v.1.15,2013-01-11 19:04:00,
2013-01-11 13:05:00,43.5,43.5,29.62,WSW,249,7.0,13.0,100,0.00,,,0.20,Wunderground v.1.15,2013-01-11 19:05:00,
2013-01-11 13:08:00,43.5,43.5,29.61,WSW,252,7.0,12.0,100,0.00,,,0.20,Wunderground v.1.15,2013-01-11 19:08:00,
2013-01-11 13:09:00,43.5,43.5,29.61,WSW,253,6.0,12.0,100,0.00,,,0.20,Wunderground v.1.15,2013-01-11 19:09:00,
2013-01-11 13:10:00,43.5,43.5,29.61,WSW,240,9.0,12.0,100,0.00,,,0.20,Wunderground v.1.15,2013-01-11 19:10:00,
2013-01-11 13:14:00,43.5,43.5,29.61,WSW,243,9.0,12.0,100,0.00,,,0.20,Wunderground v.1.15,2013-01-11 19:14:00,
2013-01-11 13:15:00,43.5,43.5,29.61,WSW,238,12.0,12.0,100,0.00,,,0.20,Wunderground v.1.15,2013-01-11 19:15:00,
2013-01-11 13:18:00,43.6,43.6,29.61,WSW,238,13.0,13.0,100,0.00,,,0.20,Wunderground v.1.15,2013-01-11 19:18:00,
2013-01-11 13:19:00,43.6,43.6,29.61,WSW,258,9.0,13.0,100,0.00,,,0.20,Wunderground v.1.15,2013-01-11 19:19:00,
2013-01-11 13:24:00,43.6,43.6,29.61,WSW,242,8.0,13.0,100,0.00,,,0.20,Wunderground v.1.15,2013-01-11 19:24:00,
2013-01-11 13:25:00,43.6,43.6,29.61,WSW,240,12.0,13.0,100,0.00,,,0.20,Wunderground v.1.15,2013-01-11 19:25:00,
2013-01-11 13:30:00,43.8,43.8,29.61,WSW,252,11.0,13.0,100,0.00,,,0.20,Wunderground v.1.15,2013-01-11 19:30:00,
2013-01-11 13:33:00,43.8,43.8,29.61,West,262,13.0,13.0,100,0.00,,,0.20,Wunderground v.1.15,2013-01-11 19:33:00,
2013-01-11 13:35:00,43.8,43.8,29.61,WSW,242,12.0,13.0,100,0.00,,,0.20,Wunderground v.1.15,2013-01-11 19:35:00,
2013-01-11 13:39:00,43.9,43.9,29.61,West,268,11.0,15.0,100,0.00,,,0.20,Wunderground v.1.15,2013-01-11 19:39:00,
2013-01-11 13:40:00,44.1,44.1,29.61,WSW,257,9.0,15.0,100,0.00,,,0.20,Wunderground v.1.15,2013-01-11 19:40:00,
2013-01-11 13:41:00,44.1,44.1,29.61,West,270,10.0,15.0,100,0.00,,,0.20,Wunderground v.1.15,2013-01-11 19:41:00,
2013-01-11 13:44:00,44.2,44.2,29.61,WSW,257,11.0,15.0,100,0.00,,,0.20,Wunderground v.1.15,2013-01-11 19:44:00,
2013-01-11 13:48:00,44.2,44.2,29.61,WSW,253,8.0,9.0,100,0.00,,,0.20,Wunderground v.1.15,2013-01-11 19:48:00,
2013-01-11 13:49:00,44.2,44.2,29.61,WSW,248,8.0,12.0,100,0.00,,,0.20,Wunderground v.1.15,2013-01-11 19:49:00,
2013-01-11 13:50:00,44.2,44.2,29.61,WSW,240,9.0,12.0,100,0.00,,,0.20,Wunderground v.1.15,2013-01-11 19:50:00,
2013-01-11 13:54:00,44.3,44.3,29.60,WSW,246,9.0,12.0,100,0.00,,,0.20,Wunderground v.1.15,2013-01-11 19:54:00,
2013-01-11 13:55:00,44.3,44.3,29.60,West,262,7.0,12.0,100,0.00,,,0.20,Wunderground v.1.15,2013-01-11 19:55:00,
2013-01-11 13:58:00,44.5,44.5,29.60,West,262,10.0,10.0,100,0.00,,,0.20,Wunderground v.1.15,2013-01-11 19:58:00,
2013-01-11 14:00:00,44.5,44.5,29.60,SW,227,5.0,10.0,100,0.00,,,0.20,Wunderground v.1.15,2013-01-11 20:00:00,
2013-01-11 14:01:00,44.5,44.5,29.60,SW,229,7.0,10.0,100,0.00,,,0.20,Wunderground v.1.15,2013-01-11 20:01:00,
2013-01-11 14:02:00,44.5,44.5,29.60,West,264,9.0,10.0,100,0.00,,,0.20,Wunderground v.1.15,2013-01-11 20:02:00,
2013-01-11 14:03:00,44.5,44.5,29.60,SW,225,4.0,10.0,100,0.00,,,0.20,Wunderground v.1.15,2013-01-11 20:03:00,
2013-01-11 14:08:00,44.6,44.6,29.61,SW,231,8.0,8.0,100,0.00,,,0.20,Wunderground v.1.15,2013-01-11 20:08:00,
2013-01-11 14:09:00,44.6,44.6,29.61,WSW,239,7.0,10.0,100,0.00,,,0.20,Wunderground v.1.15,2013-01-11 20:09:00,
2013-01-11 14:13:00,44.6,44.6,29.61,SW,221,4.0,10.0,100,0.00,,,0.20,Wunderground v.1.15,2013-01-11 20:13:00,
2013-01-11 14:14:00,44.6,44.6,29.61,SW,222,4.0,10.0,100,0.00,,,0.20,Wunderground v.1.15,2013-01-11 20:14:00,
2013-01-11 14:15:00,44.6,44.6,29.61,SSW,206,7.0,11.0,100,0.00,,,0.20,Wunderground v.1.15,2013-01-11 20:15:00,
2013-01-11 14:17:00,44.6,44.6,29.61,SW,224,12.0,12.0,100,0.00,,,0.20,Wunderground v.1.15,2013-01-11 20:17:00,
2013-01-11 14:19:00,44.6,44.6,29.61,SW,218,6.0,9.0,100,0.00,,,0.20,Wunderground v.1.15,2013-01-11 20:19:00,
2013-01-11 14:21:00,44.6,44.6,29.61,WSW,248,7.0,11.0,100,0.00,,,0.20,Wunderground v.1.15,2013-01-11 20:21:00,
2013-01-11 14:23:00,44.8,44.8,29.62,WSW,242,7.0,15.0,100,0.00,,,0.20,Wunderground v.1.15,2013-01-11 20:23:00,
2013-01-11 14:25:00,44.8,44.8,29.62,WSW,238,11.0,15.0,100,0.00,,,0.20,Wunderground v.1.15,2013-01-11 20:25:00,
2013-01-11 14:28:00,44.8,44.8,29.62,SW,221,6.0,9.0,100,0.00,,,0.20,Wunderground v.1.15,2013-01-11 20:28:00,
2013-01-11 14:30:00,44.8,44.8,29.62,WSW,245,9.0,13.0,100,0.00,,,0.20,Wunderground v.1.15,2013-01-11 20:30:00,
2013-01-11 14:31:00,44.8,44.8,29.62,SSW,195,10.0,15.0,100,0.00,,,0.20,Wunderground v.1.15,2013-01-11 20:31:00,
2013-01-11 14:33:00,44.8,44.8,29.62,West,270,10.0,15.0,100,0.00,,,0.20,Wunderground v.1.15,2013-01-11 20:33:00,
2013-01-11 14:34:00,44.8,44.8,29.62,SW,225,6.0,15.0,100,0.00,,,0.20,Wunderground v.1.15,2013-01-11 20:34:00,
2013-01-11 14:35:00,44.8,44.8,29.62,WSW,246,12.0,15.0,100,0.00,,,0.20,Wunderground v.1.15,2013-01-11 20:35:00,
2013-01-11 14:38:00,44.9,44.9,29.62,WSW,244,10.0,15.0,100,0.00,,,0.20,Wunderground v.1.15,2013-01-11 20:38:00,
2013-01-11 14:39:00,44.9,44.9,29.62,SSW,203,9.0,15.0,100,0.00,,,0.20,Wunderground v.1.15,2013-01-11 20:39:00,
2013-01-11 14:40:00,44.9,44.9,29.62,SSW,198,12.0,15.0,100,0.00,,,0.20,Wunderground v.1.15,2013-01-11 20:40:00,
2013-01-11 14:41:00,44.9,44.9,29.62,SSW,212,10.0,15.0,100,0.00,,,0.20,Wunderground v.1.15,2013-01-11 20:41:00,
2013-01-11 14:44:00,44.9,44.9,29.62,South,181,12.0,15.0,100,0.00,,,0.20,Wunderground v.1.15,2013-01-11 20:44:00,
2013-01-11 14:45:00,44.9,44.9,29.62,WSW,239,12.0,15.0,100,0.00,,,0.20,Wunderground v.1.15,2013-01-11 20:45:00,
2013-01-11 14:48:00,45.1,45.1,29.62,SW,218,15.0,15.0,100,0.00,,,0.20,Wunderground v.1.15,2013-01-11 20:48:00,
2013-01-11 14:49:00,45.1,45.1,29.62,WSW,239,7.0,15.0,100,0.00,,,0.20,Wunderground v.1.15,2013-01-11 20:49:00,
2013-01-11 14:53:00,45.1,45.1,29.61,SW,235,11.0,15.0,100,0.00,,,0.20,Wunderground v.1.15,2013-01-11 20:53:00,
2013-01-11 14:54:00,45.1,45.1,29.61,SW,236,16.0,16.0,100,0.00,,,0.20,Wunderground v.1.15,2013-01-11 20:54:00,
2013-01-11 14:58:00,45.2,45.2,29.61,SW,225,12.0,12.0,100,0.00,,,0.20,Wunderground v.1.15,2013-01-11 20:58:00,
2013-01-11 14:59:00,45.2,45.2,29.61,WSW,238,13.0,15.0,100,0.00,,,0.20,Wunderground v.1.15,2013-01-11 20:59:00,
2013-01-11 15:04:00,45.4,45.4,29.61,South,176,13.0,15.0,100,0.00,,,0.20,Wunderground v.1.15,2013-01-11 21:04:00,
2013-01-11 15:05:00,45.4,45.4,29.61,SW,222,11.0,18.0,100,0.00,,,0.20,Wunderground v.1.15,2013-01-11 21:05:00,
2013-01-11 15:09:00,45.5,45.5,29.60,SW,218,8.0,14.0,100,0.00,,,0.20,Wunderground v.1.15,2013-01-11 21:09:00,
2013-01-11 15:10:00,45.5,45.5,29.60,WSW,239,2.0,14.0,100,0.00,,,0.20,Wunderground v.1.15,2013-01-11 21:10:00,
2013-01-11 15:13:00,45.5,45.5,29.60,SSW,192,11.0,14.0,100,0.00,,,0.20,Wunderground v.1.15,2013-01-11 21:13:00,
2013-01-11 15:15:00,45.7,45.7,29.60,SSW,210,13.0,14.0,100,0.00,,,0.20,Wunderground v.1.15,2013-01-11 21:15:00,
2013-01-11 15:16:00,45.7,45.7,29.60,SSW,194,15.0,17.0,100,0.00,,,0.20,Wunderground v.1.15,2013-01-11 21:16:00,
2013-01-11 15:19:00,45.7,45.7,29.60,SSW,198,16.0,16.0,100,0.00,,,0.20,Wunderground v.1.15,2013-01-11 21:19:00,
2013-01-11 15:20:00,45.7,45.7,29.60,South,190,11.0,16.0,100,0.00,,,0.20,Wunderground v.1.15,2013-01-11 21:20:00,
2013-01-11 15:23:00,45.7,45.7,29.59,SSW,207,7.0,16.0,100,0.00,,,0.20,Wunderground v.1.15,2013-01-11 21:23:00,
2013-01-11 15:24:00,45.7,45.7,29.59,South,179,14.0,16.0,100,0.00,,,0.20,Wunderground v.1.15,2013-01-11 21:24:00,
2013-01-11 15:25:00,45.8,45.8,29.59,South,179,13.0,16.0,100,0.00,,,0.20,Wunderground v.1.15,2013-01-11 21:25:00,
2013-01-11 15:28:00,45.8,45.8,29.59,South,187,9.0,10.0,100,0.00,,,0.20,Wunderground v.1.15,2013-01-11 21:28:00,
2013-01-11 15:29:00,45.8,45.8,29.59,South,190,13.0,15.0,100,0.00,,,0.20,Wunderground v.1.15,2013-01-11 21:29:00,
2013-01-11 15:33:00,45.8,45.8,29.59,South,177,14.0,15.0,100,0.00,,,0.20,Wunderground v.1.15,2013-01-11 21:33:00,
2013-01-11 15:34:00,45.8,45.8,29.59,South,191,13.0,15.0,100,0.00,,,0.20,Wunderground v.1.15,2013-01-11 21:34:00,
2013-01-11 15:39:00,45.8,45.8,29.59,South,179,9.0,11.0,100,0.00,,,0.20,Wunderground v.1.15,2013-01-11 21:39:00,
2013-01-11 15:40:00,45.8,45.8,29.59,SSW,196,12.0,17.0,100,0.00,,,0.20,Wunderground v.1.15,2013-01-11 21:40:00,
2013-01-11 15:44:00,45.8,45.8,29.59,South,186,12.0,17.0,100,0.00,,,0.20,Wunderground v.1.15,2013-01-11 21:44:00,
2013-01-11 15:45:00,46.0,46.0,29.59,South,186,13.0,17.0,100,0.00,,,0.20,Wunderground v.1.15,2013-01-11 21:45:00,
2013-01-11 15:49:00,46.0,46.0,29.59,South,185,13.0,15.0,100,0.00,,,0.20,Wunderground v.1.15,2013-01-11 21:49:00,
2013-01-11 15:50:00,46.0,46.0,29.59,SSW,196,11.0,15.0,100,0.00,,,0.20,Wunderground v.1.15,2013-01-11 21:50:00,
2013-01-11 15:51:00,46.0,46.0,29.59,SSW,203,12.0,15.0,100,0.00,,,0.20,Wunderground v.1.15,2013-01-11 21:51:00,
2013-01-11 15:52:00,46.0,46.0,29.59,SSW,193,12.0,15.0,100,0.00,,,0.20,Wunderground v.1.15,2013-01-11 21:52:00,
2013-01-11 15:55:00,46.0,46.0,29.59,SW,219,16.0,16.0,100,0.00,,,0.20,Wunderground v.1.15,2013-01-11 21:55:00,
2013-01-11 15:58:00,46.0,46.0,29.59,SSW,212,10.0,11.0,100,0.00,,,0.20,Wunderground v.1.15,2013-01-11 21:58:00,
2013-01-11 16:00:00,46.0,46.0,29.59,SW,230,12.0,12.0,100,0.00,,,0.20,Wunderground v.1.15,2013-01-11 22:00:00,
2013-01-11 16:03:00,46.0,46.0,29.59,SSW,199,19.0,19.0,100,0.00,,,0.20,Wunderground v.1.15,2013-01-11 22:03:00,
2013-01-11 16:05:00,46.0,46.0,29.59,SW,216,11.0,19.0,100,0.00,,,0.20,Wunderground v.1.15,2013-01-11 22:05:00,
2013-01-11 16:06:00,46.0,46.0,29.59,South,179,10.0,19.0,100,0.00,,,0.20,Wunderground v.1.15,2013-01-11 22:06:00,
2013-01-11 16:09:00,46.0,46.0,29.59,South,176,8.0,12.0,100,0.00,,,0.20,Wunderground v.1.15,2013-01-11 22:09:00,
2013-01-11 16:10:00,46.0,46.0,29.59,South,189,15.0,15.0,100,0.00,,,0.20,Wunderground v.1.15,2013-01-11 22:10:00,
2013-01-11 16:13:00,46.0,46.0,29.59,South,181,16.0,16.0,100,0.00,,,0.20,Wunderground v.1.15,2013-01-11 22:13:00,
2013-01-11 16:14:00,46.1,46.1,29.59,South,171,9.0,16.0,100,0.00,,,0.20,Wunderground v.1.15,2013-01-11 22:14:00,
2013-01-11 16:15:00,46.1,46.1,29.59,South,172,15.0,16.0,100,0.00,,,0.20,Wunderground v.1.15,2013-01-11 22:15:00,
2013-01-11 16:18:00,46.1,46.1,29.59,SSW,205,11.0,17.0,100,0.00,,,0.20,Wunderground v.1.15,2013-01-11 22:18:00,
2013-01-11 16:20:00,46.1,46.1,29.59,SW,216,13.0,18.0,100,0.00,,,0.20,Wunderground v.1.15,2013-01-11 22:20:00,
2013-01-11 16:24:00,46.2,46.2,29.60,SSW,197,11.0,18.0,100,0.00,,,0.20,Wunderground v.1.15,2013-01-11 22:24:00,
2013-01-11 16:25:00,46.2,46.2,29.60,SSW,200,16.0,18.0,100,0.00,,,0.20,Wunderground v.1.15,2013-01-11 22:25:00,
2013-01-11 16:29:00,46.4,46.4,29.60,South,186,10.0,15.0,100,0.00,,,0.20,Wunderground v.1.15,2013-01-11 22:29:00,
2013-01-11 16:30:00,46.4,46.4,29.60,SW,214,12.0,15.0,100,0.00,,,0.20,Wunderground v.1.15,2013-01-11 22:30:00,
2013-01-11 16:31:00,46.4,46.4,29.60,SSW,208,17.0,17.0,100,0.00,,,0.20,Wunderground v.1.15,2013-01-11 22:31:00,
2013-01-11 16:35:00,46.4,46.4,29.60,South,172,9.0,18.0,100,0.00,,,0.20,Wunderground v.1.15,2013-01-11 22:35:00,
2013-01-11 16:36:00,46.4,46.4,29.60,SW,222,18.0,18.0,100,0.00,,,0.20,Wunderground v.1.15,2013-01-11 22:36:00,
2013-01-11 16:38:00,46.4,46.4,29.60,South,169,16.0,16.0,100,0.00,,,0.20,Wunderground v.1.15,2013-01-11 22:38:00,
2013-01-11 16:40:00,46.5,46.5,29.60,SSW,203,10.0,16.0,100,0.00,,,0.20,Wunderground v.1.15,2013-01-11 22:40:00,
2013-01-11 16:43:00,46.5,46.5,29.60,South,185,16.0,19.0,100,0.00,,,0.20,Wunderground v.1.15,2013-01-11 22:43:00,
2013-01-11 16:44:00,46.7,46.7,29.60,SSW,209,9.0,19.0,100,0.00,,,0.20,Wunderground v.1.15,2013-01-11 22:44:00,
2013-01-11 16:46:00,46.5,46.5,29.60,SW,217,17.0,19.0,100,0.00,,,0.20,Wunderground v.1.15,2013-01-11 22:46:00,
2013-01-11 16:47:00,46.5,46.5,29.60,SW,217,13.0,19.0,100,0.00,,,0.20,Wunderground v.1.15,2013-01-11 22:47:00,
2013-01-11 16:48:00,46.7,46.7,29.60,South,183,9.0,14.0,100,0.00,,,0.20,Wunderground v.1.15,2013-01-11 22:48:00,
2013-01-11 16:51:00,46.5,46.5,29.60,SSW,197,16.0,16.0,100,0.00,,,0.20,Wunderground v.1.15,2013-01-11 22:51:00,
2013-01-11 16:53:00,46.7,46.7,29.58,SW,217,13.0,16.0,100,0.00,,,0.20,Wunderground v.1.15,2013-01-11 22:53:00,
2013-01-11 16:54:00,46.7,46.7,29.58,South,181,15.0,16.0,100,0.00,,,0.20,Wunderground v.1.15,2013-01-11 22:54:00,
2013-01-11 16:58:00,46.7,46.7,29.58,SSW,197,14.0,14.0,100,0.00,,,0.20,Wunderground v.1.15,2013-01-11 22:58:00,
2013-01-11 16:59:00,46.7,46.7,29.58,SSW,199,11.0,14.0,100,0.00,,,0.20,Wunderground v.1.15,2013-01-11 22:59:00,
2013-01-11 17:01:00,46.7,46.7,29.58,South,191,12.0,16.0,100,0.00,,,0.20,Wunderground v.1.15,2013-01-11 23:01:00,
2013-01-11 17:03:00,46.7,46.7,29.58,SSW,193,10.0,16.0,100,0.00,,,0.20,Wunderground v.1.15,2013-01-11 23:03:00,
2013-01-11 17:04:00,46.8,46.8,29.58,SSW,195,12.0,16.0,100,0.00,,,0.20,Wunderground v.1.15,2013-01-11 23:04:00,
2013-01-11 17:05:00,46.8,46.8,29.58,SSW,212,9.0,16.0,100,0.00,,,0.20,Wunderground v.1.15,2013-01-11 23:05:00,
2013-01-11 17:06:00,46.8,46.8,29.58,SSW,192,13.0,16.0,100,0.00,,,0.20,Wunderground v.1.15,2013-01-11 23:06:00,
2013-01-11 17:09:00,46.8,46.8,29.60,SW,216,10.0,14.0,100,0.00,,,0.20,Wunderground v.1.15,2013-01-11 23:09:00,
2013-01-11 17:14:00,46.8,46.8,29.60,SSW,205,6.0,14.0,100,0.00,,,0.20,Wunderground v.1.15,2013-01-11 23:14:00,
2013-01-11 17:15:00,46.8,46.8,29.60,SSW,204,7.0,14.0,100,0.00,,,0.20,Wunderground v.1.15,2013-01-11 23:15:00,
2013-01-11 17:19:00,46.8,46.8,29.60,SSW,206,13.0,13.0,100,0.00,,,0.20,Wunderground v.1.15,2013-01-11 23:19:00,
2013-01-11 17:20:00,46.8,46.8,29.60,SW,233,13.0,17.0,100,0.00,,,0.20,Wunderground v.1.15,2013-01-11 23:20:00,
2013-01-11 17:23:00,47.0,47.0,29.59,South,181,10.0,17.0,100,0.00,,,0.20,Wunderground v.1.15,2013-01-11 23:23:00,
2013-01-11 17:24:00,47.0,47.0,29.59,SSW,192,14.0,17.0,100,0.00,,,0.20,Wunderground v.1.15,2013-01-11 23:24:00,
2013-01-11 17:25:00,47.0,47.0,29.59,SSW,196,9.0,17.0,100,0.00,,,0.20,Wunderground v.1.15,2013-01-11 23:25:00,
2013-01-11 17:28:00,47.0,47.0,29.59,South,188,10.0,13.0,100,0.00,,,0.20,Wunderground v.1.15,2013-01-11 23:28:00,
2013-01-11 17:30:00,47.0,47.0,29.59,SSW,202,10.0,14.0,100,0.00,,,0.20,Wunderground v.1.15,2013-01-11 23:30:00,
2013-01-11 17:32:00,47.0,47.0,29.59,SSW,203,14.0,18.0,100,0.00,,,0.20,Wunderground v.1.15,2013-01-11 23:32:00,
2013-01-11 17:34:00,47.0,47.0,29.59,SW,226,3.0,18.0,100,0.00,,,0.20,Wunderground v.1.15,2013-01-11 23:34:00,
2013-01-11 17:35:00,47.0,47.0,29.59,South,191,12.0,18.0,100,0.00,,,0.20,Wunderground v.1.15,2013-01-11 23:35:00,
2013-01-11 17:38:00,47.0,47.0,29.59,South,184,11.0,11.0,100,0.00,,,0.20,Wunderground v.1.15,2013-01-11 23:38:00,
2013-01-11 17:39:00,47.1,47.1,29.59,SSW,192,13.0,16.0,100,0.00,,,0.20,Wunderground v.1.15,2013-01-11 23:39:00,
2013-01-11 17:40:00,47.1,47.1,29.59,South,191,12.0,16.0,100,0.00,,,0.20,Wunderground v.1.15,2013-01-11 23:40:00,
2013-01-11 17:44:00,47.1,47.1,29.59,SSW,206,12.0,16.0,100,0.00,,,0.20,Wunderground v.1.15,2013-01-11 23:44:00,
2013-01-11 17:45:00,47.1,47.1,29.59,SSW,197,16.0,21.0,100,0.00,,,0.20,Wunderground v.1.15,2013-01-11 23:45:00,
2013-01-11 17:46:00,47.1,47.1,29.59,SSE,166,15.0,21.0,100,0.00,,,0.20,Wunderground v.1.15,2013-01-11 23:46:00,
2013-01-11 17:49:00,47.3,47.3,29.59,SSW,200,11.0,16.0,100,0.00,,,0.20,Wunderground v.1.15,2013-01-11 23:49:00,
2013-01-11 17:50:00,47.3,47.3,29.59,SSW,201,11.0,16.0,100,0.00,,,0.20,Wunderground v.1.15,2013-01-11 23:50:00,
2013-01-11 17:53:00,47.3,47.3,29.59,SW,229,5.0,16.0,100,0.00,,,0.20,Wunderground v.1.15,2013-01-11 23:53:00,
2013-01-11 17:54:00,47.4,47.1,29.60,WSW,239,10.0,16.0,99,0.00,,,0.20,Wunderground v.1.15,2013-01-11 23:54:00,
2013-01-11 17:56:00,47.4,47.1,29.60,SW,214,5.0,16.0,99,0.00,,,0.20,Wunderground v.1.15,2013-01-11 23:56:00,
2013-01-11 17:58:00,47.4,47.1,29.60,SSE,164,14.0,14.0,99,0.00,,,0.20,Wunderground v.1.15,2013-01-11 23:58:00,
2013-01-11 17:59:00,47.6,47.3,29.60,SW,233,15.0,16.0,99,0.00,,,0.20,Wunderground v.1.15,2013-01-11 23:59:00,
2013-01-11 18:00:00,47.6,47.3,29.60,South,191,11.0,16.0,99,0.00,,,0.20,Wunderground v.1.15,2013-01-12 00:00:00,
2013-01-11 18:03:00,47.6,47.3,29.60,SSW,195,11.0,16.0,99,0.00,,,0.20,Wunderground v.1.15,2013-01-12 00:03:00,
2013-01-11 18:05:00,47.6,47.3,29.60,South,183,8.0,16.0,99,0.00,,,0.20,Wunderground v.1.15,2013-01-12 00:05:00,
2013-01-11 18:09:00,47.6,47.3,29.59,SSW,200,14.0,14.0,99,0.00,,,0.20,Wunderground v.1.15,2013-01-12 00:09:00,
2013-01-11 18:10:00,47.6,47.3,29.59,SW,219,6.0,14.0,99,0.00,,,0.20,Wunderground v.1.15,2013-01-12 00:10:00,
2013-01-11 18:13:00,47.7,47.2,29.59,SW,229,6.0,14.0,98,0.00,,,0.20,Wunderground v.1.15,2013-01-12 00:13:00,
2013-01-11 18:15:00,47.9,47.4,29.59,SW,223,4.0,14.0,98,0.00,,,0.20,Wunderground v.1.15,2013-01-12 00:15:00,
2013-01-11 18:16:00,47.9,47.4,29.59,South,188,4.0,14.0,98,0.00,,,0.20,Wunderground v.1.15,2013-01-12 00:16:00,
2013-01-11 18:19:00,47.9,47.4,29.59,SSW,203,11.0,12.0,98,0.00,,,0.20,Wunderground v.1.15,2013-01-12 00:19:00,
2013-01-11 18:20:00,47.9,47.4,29.59,SSW,200,10.0,12.0,98,0.00,,,0.20,Wunderground v.1.15,2013-01-12 00:20:00,
2013-01-11 18:21:00,47.9,47.4,29.59,SSW,208,6.0,12.0,98,0.00,,,0.20,Wunderground v.1.15,2013-01-12 00:21:00,
2013-01-11 18:24:00,47.9,47.1,29.60,SSW,209,7.0,12.0,97,0.00,,,0.20,Wunderground v.1.15,2013-01-12 00:24:00,
2013-01-11 18:26:00,47.9,47.1,29.60,South,188,15.0,15.0,97,0.00,,,0.20,Wunderground v.1.15,2013-01-12 00:26:00,
2013-01-11 18:28:00,47.7,46.9,29.60,South,180,15.0,15.0,97,0.00,,,0.20,Wunderground v.1.15,2013-01-12 00:28:00,
2013-01-11 18:30:00,47.9,47.1,29.60,SSW,207,13.0,17.0,97,0.00,,,0.20,Wunderground v.1.15,2013-01-12 00:30:00,
2013-01-11 18:34:00,47.9,47.1,29.60,SSW,205,18.0,18.0,97,0.00,,,0.20,Wunderground v.1.15,2013-01-12 00:34:00,
2013-01-11 18:35:00,48.0,47.2,29.60,South,175,7.0,18.0,97,0.00,,,0.20,Wunderground v.1.15,2013-01-12 00:35:00,
2013-01-11 18:36:00,48.0,47.2,29.60,WSW,248,10.0,18.0,97,0.00,,,0.20,Wunderground v.1.15,2013-01-12 00:36:00,
2013-01-11 18:39:00,48.0,46.9,29.60,SSW,210,12.0,12.0,96,0.00,,,0.20,Wunderground v.1.15,2013-01-12 00:39:00,
2013-01-11 18:40:00,48.0,46.9,29.60,SW,215,4.0,13.0,96,0.00,,,0.20,Wunderground v.1.15,2013-01-12 00:40:00,
2013-01-11 18:43:00,48.0,46.9,29.60,South,187,6.0,13.0,96,0.00,,,0.20,Wunderground v.1.15,2013-01-12 00:43:00,
2013-01-11 18:45:00,48.0,46.9,29.60,SW,220,11.0,13.0,96,0.00,,,0.20,Wunderground v.1.15,2013-01-12 00:45:00,
2013-01-11 18:48:00,48.2,47.1,29.60,SSW,193,11.0,11.0,96,0.00,,,0.20,Wunderground v.1.15,2013-01-12 00:48:00,
2013-01-11 18:49:00,48.2,47.1,29.60,SW,221,13.0,16.0,96,0.00,,,0.20,Wunderground v.1.15,2013-01-12 00:49:00,
2013-01-11 18:50:00,48.2,47.1,29.60,SSW,202,6.0,16.0,96,0.00,,,0.20,Wunderground v.1.15,2013-01-12 00:50:00,
2013-01-11 18:53:00,48.2,47.1,29.60,South,176,7.0,16.0,96,0.00,,,0.20,Wunderground v.1.15,2013-01-12 00:53:00,
2013-01-11 18:55:00,48.2,47.1,29.60,SSW,212,9.0,16.0,96,0.00,,,0.20,Wunderground v.1.15,2013-01-12 00:55:00,
2013-01-11 18:58:00,48.2,47.1,29.60,SSW,198,13.0,13.0,96,0.00,,,0.20,Wunderground v.1.15,2013-01-12 00:58:00,
2013-01-11 18:59:00,48.2,47.1,29.60,South,188,15.0,15.0,96,0.00,,,0.20,Wunderground v.1.15,2013-01-12 00:59:00,
2013-01-11 19:00:00,48.3,47.2,29.60,SW,221,13.0,15.0,96,0.00,,,0.20,Wunderground v.1.15,2013-01-12 01:00:00,
2013-01-11 19:01:00,48.3,47.2,29.60,SSW,207,10.0,15.0,96,0.00,,,0.20,Wunderground v.1.15,2013-01-12 01:01:00,
2013-01-11 19:04:00,48.3,46.9,29.60,South,176,16.0,16.0,95,0.00,,,0.20,Wunderground v.1.15,2013-01-12 01:04:00,
2013-01-11 19:05:00,48.3,46.9,29.60,SSE,167,11.0,16.0,95,0.00,,,0.20,Wunderground v.1.15,2013-01-12 01:05:00,
2013-01-11 19:08:00,48.5,47.1,29.57,South,175,16.0,16.0,95,0.00,,,0.20,Wunderground v.1.15,2013-01-12 01:08:00,
2013-01-11 19:09:00,48.5,47.1,29.57,SSW,198,13.0,16.0,95,0.00,,,0.20,Wunderground v.1.15,2013-01-12 01:09:00,
2013-01-11 19:11:00,48.5,47.1,29.57,SSE,150,12.0,16.0,95,0.00,,,0.20,Wunderground v.1.15,2013-01-12 01:11:00,
2013-01-11 19:15:00,48.5,47.1,29.57,WSW,246,14.0,16.0,95,0.00,,,0.20,Wunderground v.1.15,2013-01-12 01:15:00,
2013-01-11 19:16:00,48.6,47.2,29.57,SSW,194,11.0,16.0,95,0.00,,,0.20,Wunderground v.1.15,2013-01-12 01:16:00,
2013-01-11 19:19:00,48.6,47.2,29.57,South,181,6.0,16.0,95,0.00,,,0.20,Wunderground v.1.15,2013-01-12 01:19:00,
2013-01-11 19:21:00,48.6,47.2,29.57,SW,214,15.0,16.0,95,0.00,,,0.20,Wunderground v.1.15,2013-01-12 01:21:00,
2013-01-11 19:23:00,48.8,47.4,29.58,South,191,16.0,16.0,95,0.00,,,0.20,Wunderground v.1.15,2013-01-12 01:23:00,
2013-01-11 19:25:00,48.8,47.4,29.58,South,188,14.0,16.0,95,0.00,,,0.20,Wunderground v.1.15,2013-01-12 01:25:00,
2013-01-11 19:28:00,48.8,47.2,29.58,South,180,15.0,15.0,94,0.00,,,0.20,Wunderground v.1.15,2013-01-12 01:28:00,
2013-01-11 19:29:00,48.8,47.2,29.58,South,185,13.0,20.0,94,0.00,,,0.20,Wunderground v.1.15,2013-01-12 01:29:00,
2013-01-11 19:30:00,48.8,47.2,29.58,SSW,203,15.0,20.0,94,0.00,,,0.20,Wunderground v.1.15,2013-01-12 01:30:00,
2013-01-11 19:34:00,48.9,47.2,29.58,SSW,195,18.0,24.0,94,0.00,,,0.20,Wunderground v.1.15,2013-01-12 01:34:00,
2013-01-11 19:35:00,49.1,47.4,29.58,SSW,209,18.0,24.0,94,0.00,,,0.20,Wunderground v.1.15,2013-01-12 01:35:00,
2013-01-11 19:37:00,49.1,47.4,29.58,South,187,7.0,24.0,94,0.00,,,0.20,Wunderground v.1.15,2013-01-12 01:37:00,
2013-01-11 19:39:00,48.9,47.2,29.58,SSE,166,14.0,14.0,94,0.00,,,0.20,Wunderground v.1.15,2013-01-12 01:39:00,
2013-01-11 19:40:00,48.9,47.2,29.58,SW,224,10.0,14.0,94,0.00,,,0.20,Wunderground v.1.15,2013-01-12 01:40:00,
2013-01-11 19:43:00,49.1,47.4,29.58,South,183,14.0,22.0,94,0.00,,,0.20,Wunderground v.1.15,2013-01-12 01:43:00,
2013-01-11 19:44:00,49.1,47.4,29.58,SSW,197,16.0,22.0,94,0.00,,,0.20,Wunderground v.1.15,2013-01-12 01:44:00,
2013-01-11 19:45:00,49.1,47.2,29.58,SSW,207,12.0,22.0,93,0.00,,,0.20,Wunderground v.1.15,2013-01-12 01:45:00,
2013-01-11 19:49:00,49.1,47.2,29.58,SSW,198,13.0,13.0,93,0.00,,,0.20,Wunderground v.1.15,2013-01-12 01:49:00,
2013-01-11 19:50:00,49.1,47.2,29.58,South,184,9.0,13.0,93,0.00,,,0.20,Wunderground v.1.15,2013-01-12 01:50:00,
2013-01-11 19:54:00,49.1,47.2,29.57,SW,214,12.0,18.0,93,0.00,,,0.20,Wunderground v.1.15,2013-01-12 01:54:00,
2013-01-11 19:55:00,49.2,47.3,29.57,SSW,202,10.0,19.0,93,0.00,,,0.20,Wunderground v.1.15,2013-01-12 01:55:00,
2013-01-11 19:56:00,49.2,47.3,29.57,SSW,212,14.0,19.0,93,0.00,,,0.20,Wunderground v.1.15,2013-01-12 01:56:00,
2013-01-11 20:00:00,49.2,47.3,29.57,SSW,193,14.0,18.0,93,0.00,,,0.20,Wunderground v.1.15,2013-01-12 02:00:00,
2013-01-11 20:01:00,49.2,47.3,29.57,SW,217,14.0,18.0,93,0.00,,,0.20,Wunderground v.1.15,2013-01-12 02:01:00,
2013-01-11 20:05:00,49.4,47.5,29.57,SSW,200,9.0,20.0,93,0.00,,,0.20,Wunderground v.1.15,2013-01-12 02:05:00,
2013-01-11 20:08:00,49.5,47.3,29.57,South,188,19.0,19.0,92,0.00,,,0.20,Wunderground v.1.15,2013-01-12 02:08:00,
2013-01-11 20:11:00,49.5,47.3,29.57,SSW,205,19.0,19.0,92,0.00,,,0.20,Wunderground v.1.15,2013-01-12 02:11:00,
2013-01-11 20:13:00,49.6,47.4,29.57,SW,217,9.0,20.0,92,0.00,,,0.20,Wunderground v.1.15,2013-01-12 02:13:00,
2013-01-11 20:18:00,49.6,47.4,29.57,South,184,16.0,16.0,92,0.00,,,0.20,Wunderground v.1.15,2013-01-12 02:18:00,
2013-01-11 20:19:00,49.6,47.4,29.57,SSW,195,12.0,16.0,92,0.00,,,0.20,Wunderground v.1.15,2013-01-12 02:19:00,
2013-01-11 20:24:00,49.8,47.6,29.57,SSW,193,21.0,21.0,92,0.00,,,0.20,Wunderground v.1.15,2013-01-12 02:24:00,
2013-01-11 20:26:00,49.8,47.6,29.57,SSW,193,13.0,21.0,92,0.00,,,0.20,Wunderground v.1.15,2013-01-12 02:26:00,
2013-01-11 20:29:00,49.8,47.3,29.57,SSW,198,9.0,13.0,91,0.00,,,0.20,Wunderground v.1.15,2013-01-12 02:29:00,
2013-01-11 20:30:00,49.8,47.3,29.57,SSW,196,12.0,15.0,91,0.00,,,0.20,Wunderground v.1.15,2013-01-12 02:30:00,
2013-01-11 20:33:00,49.8,47.3,29.57,SSE,159,10.0,17.0,91,0.00,,,0.20,Wunderground v.1.15,2013-01-12 02:33:00,
2013-01-11 20:35:00,49.9,47.4,29.57,SW,217,9.0,17.0,91,0.00,,,0.20,Wunderground v.1.15,2013-01-12 02:35:00,
2013-01-11 20:38:00,49.9,47.4,29.56,SSW,211,21.0,21.0,91,0.00,,,0.20,Wunderground v.1.15,2013-01-12 02:38:00,
2013-01-11 20:41:00,49.9,47.4,29.56,SW,218,11.0,21.0,91,0.00,,,0.20,Wunderground v.1.15,2013-01-12 02:41:00,
2013-01-11 20:48:00,50.1,47.3,29.56,SW,216,13.0,13.0,90,0.00,,,0.20,Wunderground v.1.15,2013-01-12 02:48:00,
2013-01-11 20:49:00,50.1,47.3,29.56,SW,214,16.0,16.0,90,0.00,,,0.20,Wunderground v.1.15,2013-01-12 02:49:00,
2013-01-11 20:53:00,50.2,47.4,29.56,South,188,14.0,21.0,90,0.00,,,0.20,Wunderground v.1.15,2013-01-12 02:53:00,
2013-01-11 20:55:00,50.2,47.4,29.56,SSW,203,10.0,21.0,90,0.00,,,0.20,Wunderground v.1.15,2013-01-12 02:55:00,
2013-01-11 20:56:00,50.2,47.1,29.56,SW,219,9.0,21.0,89,0.00,,,0.20,Wunderground v.1.15,2013-01-12 02:56:00,
2013-01-11 21:00:00,50.2,47.1,29.56,SSW,212,13.0,19.0,89,0.00,,,0.20,Wunderground v.1.15,2013-01-12 03:00:00,
2013-01-11 21:03:00,50.4,47.3,29.56,SW,218,10.0,26.0,89,0.00,,,0.20,Wunderground v.1.15,2013-01-12 03:03:00,
2013-01-11 21:04:00,50.4,47.3,29.56,WSW,242,18.0,26.0,89,0.00,,,0.20,Wunderground v.1.15,2013-01-12 03:04:00,
2013-01-11 21:05:00,50.4,47.3,29.56,SW,226,10.0,26.0,89,0.00,,,0.20,Wunderground v.1.15,2013-01-12 03:05:00,
2013-01-11 21:08:00,50.4,47.3,29.55,SSW,205,12.0,16.0,89,0.00,,,0.20,Wunderground v.1.15,2013-01-12 03:08:00,
2013-01-11 21:11:00,50.4,47.3,29.55,SSW,212,15.0,18.0,89,0.00,,,0.20,Wunderground v.1.15,2013-01-12 03:11:00,
2013-01-11 21:12:00,50.4,47.3,29.55,South,190,10.0,19.0,89,0.00,,,0.20,Wunderground v.1.15,2013-01-12 03:12:00,
2013-01-11 21:13:00,50.5,47.4,29.55,SW,228,15.0,22.0,89,0.00,,,0.20,Wunderground v.1.15,2013-01-12 03:13:00,
2013-01-11 21:14:00,50.5,47.1,29.55,SSW,208,14.0,22.0,88,0.00,,,0.20,Wunderground v.1.15,2013-01-12 03:14:00,
2013-01-11 21:18:00,50.5,47.1,29.55,SW,217,13.0,21.0,88,0.00,,,0.20,Wunderground v.1.15,2013-01-12 03:18:00,
2013-01-11 21:20:00,50.5,47.1,29.55,SW,233,13.0,21.0,88,0.00,,,0.20,Wunderground v.1.15,2013-01-12 03:20:00,
2013-01-11 21:21:00,50.7,47.3,29.55,SW,218,18.0,21.0,88,0.00,,,0.20,Wunderground v.1.15,2013-01-12 03:21:00,
2013-01-11 21:24:00,50.8,47.1,29.56,SW,228,17.0,24.0,87,0.00,,,0.20,Wunderground v.1.15,2013-01-12 03:24:00,
2013-01-11 21:25:00,50.8,47.1,29.56,SSE,167,21.0,24.0,87,0.00,,,0.20,Wunderground v.1.15,2013-01-12 03:25:00,
2013-01-11 21:26:00,50.8,47.1,29.56,SW,218,15.0,24.0,87,0.00,,,0.20,Wunderground v.1.15,2013-01-12 03:26:00,
2013-01-11 21:30:00,50.7,47.0,29.56,WSW,252,15.0,17.0,87,0.00,,,0.20,Wunderground v.1.15,2013-01-12 03:30:00,
2013-01-11 21:31:00,50.7,47.0,29.56,SW,222,13.0,18.0,87,0.00,,,0.20,Wunderground v.1.15,2013-01-12 03:31:00,
2013-01-11 21:33:00,50.7,47.0,29.56,SW,222,18.0,18.0,87,0.00,,,0.20,Wunderground v.1.15,2013-01-12 03:33:00,
2013-01-11 21:35:00,50.7,47.0,29.56,WSW,239,11.0,18.0,87,0.00,,,0.20,Wunderground v.1.15,2013-01-12 03:35:00,
2013-01-11 21:38:00,50.5,47.1,29.56,WSW,243,14.0,19.0,88,0.00,,,0.20,Wunderground v.1.15,2013-01-12 03:38:00,
2013-01-11 21:39:00,50.5,47.1,29.56,SW,217,13.0,19.0,88,0.00,,,0.20,Wunderground v.1.15,2013-01-12 03:39:00,
2013-01-11 21:44:00,50.5,47.1,29.56,SSW,206,12.0,24.0,88,0.00,,,0.20,Wunderground v.1.15,2013-01-12 03:44:00,
2013-01-11 21:45:00,50.5,47.1,29.56,SSW,203,17.0,24.0,88,0.00,,,0.20,Wunderground v.1.15,2013-01-12 03:45:00,
2013-01-11 21:49:00,50.4,47.0,29.56,WSW,250,13.0,19.0,88,0.00,,,0.20,Wunderground v.1.15,2013-01-12 03:49:00,
2013-01-11 21:50:00,50.4,47.0,29.56,SSW,200,9.0,19.0,88,0.00,,,0.20,Wunderground v.1.15,2013-01-12 03:50:00,
2013-01-11 21:53:00,50.4,47.0,29.55,SSW,213,11.0,19.0,88,0.00,,,0.20,Wunderground v.1.15,2013-01-12 03:53:00,
2013-01-11 21:55:00,50.4,47.0,29.55,SSW,210,13.0,20.0,88,0.00,,,0.20,Wunderground v.1.15,2013-01-12 03:55:00,
2013-01-11 21:56:00,50.4,47.0,29.55,West,264,17.0,20.0,88,0.00,,,0.20,Wunderground v.1.15,2013-01-12 03:56:00,
2013-01-11 21:59:00,50.4,46.7,29.55,South,186,10.0,20.0,87,0.00,,,0.20,Wunderground v.1.15,2013-01-12 03:59:00,
2013-01-11 22:00:00,50.4,46.7,29.55,SW,229,16.0,20.0,87,0.00,,,0.20,Wunderground v.1.15,2013-01-12 04:00:00,
2013-01-11 22:01:00,50.4,46.7,29.55,SW,234,10.0,20.0,87,0.00,,,0.20,Wunderground v.1.15,2013-01-12 04:01:00,
2013-01-11 22:04:00,50.2,46.8,29.55,SSW,210,17.0,20.0,88,0.00,,,0.20,Wunderground v.1.15,2013-01-12 04:04:00,
2013-01-11 22:05:00,50.2,46.8,29.55,SW,217,19.0,25.0,88,0.00,,,0.20,Wunderground v.1.15,2013-01-12 04:05:00,
2013-01-11 22:08:00,50.4,46.7,29.55,SSE,166,13.0,15.0,87,0.00,,,0.20,Wunderground v.1.15,2013-01-12 04:08:00,
2013-01-11 22:09:00,50.4,46.7,29.55,South,179,15.0,18.0,87,0.00,,,0.20,Wunderground v.1.15,2013-01-12 04:09:00,
2013-01-11 22:13:00,50.2,46.5,29.55,SW,221,15.0,19.0,87,0.00,,,0.20,Wunderground v.1.15,2013-01-12 04:13:00,
2013-01-11 22:14:00,50.4,46.7,29.55,SW,226,10.0,19.0,87,0.00,,,0.20,Wunderground v.1.15,2013-01-12 04:14:00,
2013-01-11 22:18:00,50.4,46.7,29.55,SSW,210,16.0,16.0,87,0.00,,,0.20,Wunderground v.1.15,2013-01-12 04:18:00,
2013-01-11 22:19:00,50.4,46.7,29.55,SSW,204,17.0,24.0,87,0.00,,,0.20,Wunderground v.1.15,2013-01-12 04:19:00,
2013-01-11 22:20:00,50.4,46.7,29.55,WSW,256,19.0,26.0,87,0.00,,,0.20,Wunderground v.1.15,2013-01-12 04:20:00,
2013-01-11 22:24:00,50.4,46.7,29.54,West,267,13.0,26.0,87,0.00,,,0.20,Wunderground v.1.15,2013-01-12 04:24:00,
2013-01-11 22:25:00,50.4,46.7,29.54,SW,235,10.0,26.0,87,0.00,,,0.20,Wunderground v.1.15,2013-01-12 04:25:00,
2013-01-11 22:29:00,50.4,46.7,29.54,SSW,212,14.0,26.0,87,0.00,,,0.20,Wunderground v.1.15,2013-01-12 04:29:00,
2013-01-11 22:30:00,50.4,46.7,29.54,South,189,11.0,26.0,87,0.00,,,0.20,Wunderground v.1.15,2013-01-12 04:30:00,
2013-01-11 22:31:00,50.4,46.7,29.54,SSW,197,17.0,26.0,87,0.00,,,0.20,Wunderground v.1.15,2013-01-12 04:31:00,
2013-01-11 22:38:00,50.4,46.7,29.54,SW,226,18.0,18.0,87,0.00,,,0.20,Wunderground v.1.15,2013-01-12 04:38:00,
2013-01-11 22:40:00,50.5,46.8,29.54,SW,220,14.0,22.0,87,0.00,,,0.20,Wunderground v.1.15,2013-01-12 04:40:00,
2013-01-11 22:43:00,50.4,46.7,29.54,South,169,10.0,22.0,87,0.00,,,0.20,Wunderground v.1.15,2013-01-12 04:43:00,
2013-01-11 22:44:00,50.4,46.7,29.54,SSW,195,25.0,26.0,87,0.00,,,0.20,Wunderground v.1.15,2013-01-12 04:44:00,
2013-01-11 22:45:00,50.5,46.8,29.54,SW,216,16.0,26.0,87,0.00,,,0.20,Wunderground v.1.15,2013-01-12 04:45:00,
2013-01-11 22:46:00,50.5,46.8,29.54,SW,226,16.0,26.0,87,0.00,,,0.20,Wunderground v.1.15,2013-01-12 04:46:00,
2013-01-11 22:49:00,50.5,46.8,29.54,SW,217,7.0,21.0,87,0.00,,,0.20,Wunderground v.1.15,2013-01-12 04:49:00,
2013-01-11 22:50:00,50.5,46.8,29.54,SSW,210,16.0,24.0,87,0.00,,,0.20,Wunderground v.1.15,2013-01-12 04:50:00,
2013-01-11 22:53:00,50.4,46.7,29.53,SW,228,11.0,24.0,87,0.00,,,0.20,Wunderground v.1.15,2013-01-12 04:53:00,
2013-01-11 22:54:00,50.4,46.4,29.53,South,170,6.0,24.0,86,0.00,,,0.20,Wunderground v.1.15,2013-01-12 04:54:00,
2013-01-11 22:55:00,50.4,46.7,29.53,SW,222,9.0,24.0,87,0.00,,,0.20,Wunderground v.1.15,2013-01-12 04:55:00,
2013-01-11 22:58:00,50.4,46.7,29.53,SSW,210,22.0,22.0,87,0.00,,,0.20,Wunderground v.1.15,2013-01-12 04:58:00,
2013-01-11 23:00:00,50.4,46.7,29.53,West,270,12.0,22.0,87,0.00,,,0.20,Wunderground v.1.15,2013-01-12 05:00:00,
2013-01-11 23:01:00,50.4,46.7,29.53,SW,222,11.0,22.0,87,0.00,,,0.20,Wunderground v.1.15,2013-01-12 05:01:00,
2013-01-11 23:03:00,50.4,46.7,29.53,WSW,240,17.0,22.0,87,0.00,,,0.20,Wunderground v.1.15,2013-01-12 05:03:00,
2013-01-11 23:04:00,50.4,46.7,29.53,SSW,210,13.0,22.0,87,0.00,,,0.20,Wunderground v.1.15,2013-01-12 05:04:00,
2013-01-11 23:06:00,50.4,46.7,29.53,SW,223,11.0,22.0,87,0.00,,,0.20,Wunderground v.1.15,2013-01-12 05:06:00,
2013-01-11 23:07:00,50.4,46.7,29.53,SW,236,15.0,22.0,87,0.00,,,0.20,Wunderground v.1.15,2013-01-12 05:07:00,
2013-01-11 23:09:00,50.5,46.5,29.53,SSW,201,18.0,22.0,86,0.00,,,0.00,Wunderground v.1.15,2013-01-12 05:09:00,
2013-01-11 23:11:00,50.5,46.5,29.53,SSW,198,11.0,23.0,86,0.00,,,0.00,Wunderground v.1.15,2013-01-12 05:11:00,
2013-01-11 23:14:00,50.5,46.5,29.53,SSW,202,18.0,23.0,86,0.00,,,0.00,Wunderground v.1.15,2013-01-12 05:14:00,
2013-01-11 23:16:00,50.7,46.7,29.53,SSW,209,11.0,23.0,86,0.00,,,0.00,Wunderground v.1.15,2013-01-12 05:16:00,
2013-01-11 23:19:00,50.5,46.5,29.53,SSW,200,13.0,15.0,86,0.00,,,0.00,Wunderground v.1.15,2013-01-12 05:19:00,
2013-01-11 23:23:00,50.5,46.5,29.53,SSW,209,11.0,16.0,86,0.00,,,0.00,Wunderground v.1.15,2013-01-12 05:23:00,
2013-01-11 23:24:00,50.7,46.7,29.53,WSW,248,15.0,16.0,86,0.00,,,0.00,Wunderground v.1.15,2013-01-12 05:24:00,
2013-01-11 23:25:00,50.7,46.7,29.53,WSW,242,16.0,20.0,86,0.00,,,0.00,Wunderground v.1.15,2013-01-12 05:25:00,
2013-01-11 23:29:00,50.7,46.7,29.53,SW,221,16.0,21.0,86,0.00,,,0.00,Wunderground v.1.15,2013-01-12 05:29:00,
2013-01-11 23:30:00,50.7,46.7,29.53,SSW,198,12.0,21.0,86,0.00,,,0.00,Wunderground v.1.15,2013-01-12 05:30:00,
2013-01-11 23:34:00,50.7,46.7,29.53,SW,225,11.0,21.0,86,0.00,,,0.00,Wunderground v.1.15,2013-01-12 05:34:00,
2013-01-11 23:35:00,50.7,46.7,29.53,SSW,201,11.0,21.0,86,0.00,,,0.00,Wunderground v.1.15,2013-01-12 05:35:00,
2013-01-11 23:40:00,50.7,46.7,29.54,SW,220,17.0,19.0,86,0.00,,,0.00,Wunderground v.1.15,2013-01-12 05:40:00,
2013-01-11 23:43:00,50.7,46.7,29.54,SW,224,23.0,23.0,86,0.00,,,0.00,Wunderground v.1.15,2013-01-12 05:43:00,
2013-01-11 23:45:00,50.7,46.4,29.54,WSW,238,13.0,23.0,85,0.00,,,0.00,Wunderground v.1.15,2013-01-12 05:45:00,
2013-01-11 23:46:00,50.7,46.4,29.54,WSW,243,13.0,23.0,85,0.00,,,0.00,Wunderground v.1.15,2013-01-12 05:46:00,
2013-01-11 23:48:00,50.7,46.4,29.54,SW,226,13.0,16.0,85,0.00,,,0.00,Wunderground v.1.15,2013-01-12 05:48:00,
2013-01-11 23:51:00,50.5,46.2,29.54,SSW,205,9.0,16.0,85,0.00,,,0.00,Wunderground v.1.15,2013-01-12 05:51:00,
2013-01-11 23:53:00,50.7,46.7,29.53,SSW,210,16.0,16.0,86,0.00,,,0.00,Wunderground v.1.15,2013-01-12 05:53:00,
2013-01-11 23:54:00,50.7,46.4,29.53,South,190,13.0,16.0,85,0.00,,,0.00,Wunderground v.1.15,2013-01-12 05:54:00,
2013-01-11 23:59:00,51.0,46.3,29.53,SW,219,14.0,14.0,84,0.00,,,0.00,Wunderground v.1.15,2013-01-12 05:59:00,